Time,TemperatureF,DewpointF,PressureIn,WindDirection,WindDirectionDegrees,WindSpeedMPH,WindSpeedGustMPH,Humidity,HourlyPrecipIn,Conditions,Clouds,dailyrainin,SoftwareType,DateUTC
2013-06-08 10:05:00,76.6,74.8,29.99,SW,225,16.0,19.0,94,0.00,,---,0.00,VWS V14.01,2013-06-08 14:05:00,
2013-06-08 10:10:00,76.6,74.8,29.99,SW,225,16.0,19.0,94,0.00,,---,0.00,VWS V14.01,2013-06-08 14:10:00,
2013-06-08 10:15:00,76.7,74.8,29.99,SW,225,17.0,20.0,94,0.00,,---,0.00,VWS V14.01,2013-06-08 14:15:00,
2013-06-08 10:21:00,76.6,74.8,29.99,SSW,210,15.0,17.0,94,0.00,,---,0.00,VWS V14.01,2013-06-08 14:21:00,
2013-06-08 10:22:00,76.6,74.8,29.99,SW,215,17.0,17.0,94,0.00,,---,0.00,VWS V14.01,2013-06-08 14:22:00,
2013-06-08 10:23:00,76.6,74.8,29.99,SSW,207,14.0,18.0,94,0.00,,---,0.00,VWS V14.01,2013-06-08 14:23:00,
2013-06-08 10:24:00,76.6,74.8,29.99,SSW,209,16.0,18.0,94,0.00,,---,0.00,VWS V14.01,2013-06-08 14:24:00,
2013-06-08 10:25:00,76.6,74.8,29.99,SSW,209,18.0,18.0,94,0.00,,---,0.00,VWS V14.01,2013-06-08 14:25:00,
2013-06-08 10:26:00,76.6,74.8,29.99,SSW,211,16.0,18.0,94,0.00,,---,0.00,VWS V14.01,2013-06-08 14:26:00,
2013-06-08 10:27:00,76.6,74.8,29.99,SSW,204,18.0,18.0,94,0.00,,---,0.00,VWS V14.01,2013-06-08 14:27:00,
2013-06-08 10:28:00,76.6,74.8,29.99,SSW,209,19.0,20.0,94,0.00,,---,0.00,VWS V14.01,2013-06-08 14:28:00,
2013-06-08 10:29:00,76.6,74.8,29.99,SW,215,16.0,20.0,94,0.00,,---,0.00,VWS V14.01,2013-06-08 14:29:00,
2013-06-08 10:30:00,76.6,74.8,29.99,SSW,206,17.0,20.0,94,0.00,,---,0.00,VWS V14.01,2013-06-08 14:30:00,
2013-06-08 10:31:00,76.6,74.8,29.99,SSW,207,15.0,17.0,94,0.00,,---,0.00,VWS V14.01,2013-06-08 14:31:00,
2013-06-08 10:32:00,76.6,74.8,29.99,SSW,211,15.0,20.0,94,0.00,,---,0.00,VWS V14.01,2013-06-08 14:32:00,
2013-06-08 10:33:00,76.6,74.8,29.99,SSW,200,15.0,20.0,94,0.00,,---,0.00,VWS V14.01,2013-06-08 14:33:00,
2013-06-08 10:34:00,76.6,74.8,29.99,SSW,207,18.0,20.0,94,0.00,,---,0.00,VWS V14.01,2013-06-08 14:34:00,
2013-06-08 10:35:00,76.6,74.8,29.99,SW,214,19.0,20.0,94,0.00,,---,0.00,VWS V14.01,2013-06-08 14:35:00,
2013-06-08 10:36:00,76.6,74.8,29.99,SSW,211,17.0,19.0,94,0.00,,---,0.00,VWS V14.01,2013-06-08 14:36:00,
2013-06-08 10:37:00,76.7,74.8,29.99,SSW,208,17.0,19.0,94,0.00,,---,0.00,VWS V14.01,2013-06-08 14:37:00,
2013-06-08 10:38:00,76.7,74.8,29.99,SSW,213,17.0,20.0,94,0.00,,---,0.00,VWS V14.01,2013-06-08 14:38:00,
2013-06-08 10:39:00,76.6,74.8,29.99,SSW,207,16.0,20.0,94,0.00,,---,0.00,VWS V14.01,2013-06-08 14:39:00,
2013-06-08 10:40:00,76.6,74.8,29.99,SSW,207,16.0,20.0,94,0.00,,---,0.00,VWS V14.01,2013-06-08 14:40:00,
2013-06-08 10:41:00,76.6,74.8,29.99,SSW,208,17.0,21.0,94,0.00,,---,0.00,VWS V14.01,2013-06-08 14:41:00,
2013-06-08 10:42:00,76.7,74.8,29.99,SSW,207,16.0,21.0,94,0.00,,---,0.00,VWS V14.01,2013-06-08 14:42:00,
2013-06-08 10:43:00,76.7,74.8,29.99,SSW,207,16.0,21.0,94,0.00,,---,0.00,VWS V14.01,2013-06-08 14:43:00,
2013-06-08 10:44:00,76.7,74.8,29.99,SSW,198,18.0,21.0,94,0.00,,---,0.00,VWS V14.01,2013-06-08 14:44:00,
2013-06-08 10:45:00,76.7,74.8,29.99,SSW,202,18.0,21.0,94,0.00,,---,0.00,VWS V14.01,2013-06-08 14:45:00,
2013-06-08 10:46:00,76.7,74.8,29.99,SSW,201,16.0,19.0,94,0.00,,---,0.00,VWS V14.01,2013-06-08 14:46:00,
2013-06-08 10:47:00,76.7,74.8,29.99,SSW,202,17.0,20.0,94,0.00,,---,0.00,VWS V14.01,2013-06-08 14:47:00,
2013-06-08 10:48:00,76.7,74.8,29.99,SSW,198,16.0,20.0,94,0.00,,---,0.00,VWS V14.01,2013-06-08 14:48:00,
2013-06-08 10:49:00,76.7,74.8,29.99,SSW,205,19.0,20.0,94,0.00,,---,0.00,VWS V14.01,2013-06-08 14:49:00,
2013-06-08 10:50:00,76.7,74.8,29.99,SSW,202,20.0,22.0,94,0.00,,---,0.00,VWS V14.01,2013-06-08 14:50:00,
2013-06-08 10:51:00,76.7,74.8,29.99,SSW,207,18.0,22.0,94,0.00,,---,0.00,VWS V14.01,2013-06-08 14:51:00,
2013-06-08 10:52:00,76.7,74.8,29.99,SSW,202,21.0,22.0,94,0.00,,---,0.00,VWS V14.01,2013-06-08 14:52:00,
2013-06-08 10:53:00,76.7,74.8,29.99,SSW,202,20.0,22.0,94,0.00,,---,0.00,VWS V14.01,2013-06-08 14:53:00,
2013-06-08 10:54:00,76.8,74.9,29.99,SSW,200,22.0,22.0,94,0.00,,---,0.00,VWS V14.01,2013-06-08 14:54:00,
2013-06-08 10:55:00,76.7,74.8,29.99,SSW,211,17.0,22.0,94,0.00,,---,0.00,VWS V14.01,2013-06-08 14:55:00,
2013-06-08 10:56:00,76.8,74.9,29.99,SSW,206,18.0,21.0,94,0.00,,---,0.00,VWS V14.01,2013-06-08 14:56:00,
2013-06-08 10:57:00,76.8,74.9,29.99,SSW,202,18.0,21.0,94,0.00,,---,0.00,VWS V14.01,2013-06-08 14:57:00,
2013-06-08 10:58:00,76.8,74.9,29.99,SSW,202,18.0,21.0,94,0.00,,---,0.00,VWS V14.01,2013-06-08 14:58:00,
2013-06-08 10:59:00,76.8,74.9,29.99,SSW,204,22.0,22.0,94,0.00,,---,0.00,VWS V14.01,2013-06-08 14:59:00,
2013-06-08 11:00:00,76.8,74.9,29.99,SSW,198,16.0,22.0,94,0.00,,---,0.00,VWS V14.01,2013-06-08 15:00:00,
2013-06-08 11:01:00,76.8,74.9,29.99,SSW,197,17.0,21.0,94,0.00,,---,0.00,VWS V14.01,2013-06-08 15:01:00,
2013-06-08 11:02:00,76.8,74.9,29.99,SSW,197,18.0,21.0,94,0.00,,---,0.00,VWS V14.01,2013-06-08 15:02:00,
2013-06-08 11:03:00,76.8,74.9,29.99,SSW,200,19.0,21.0,94,0.00,,---,0.00,VWS V14.01,2013-06-08 15:03:00,
2013-06-08 11:04:00,76.8,74.9,29.99,SSW,203,18.0,21.0,94,0.00,,---,0.00,VWS V14.01,2013-06-08 15:04:00,
2013-06-08 11:05:00,76.8,74.9,29.99,SSW,200,17.0,23.0,94,0.00,,---,0.00,VWS V14.01,2013-06-08 15:05:00,
2013-06-08 11:06:00,76.8,74.9,29.99,SSW,209,20.0,22.0,94,0.00,,---,0.00,VWS V14.01,2013-06-08 15:06:00,
2013-06-08 11:07:00,76.8,74.9,29.99,SSW,194,16.0,22.0,94,0.00,,---,0.00,VWS V14.01,2013-06-08 15:07:00,
2013-06-08 11:08:00,76.8,74.9,29.99,SSW,193,21.0,22.0,94,0.00,,---,0.00,VWS V14.01,2013-06-08 15:08:00,
2013-06-08 11:09:00,76.8,74.9,29.99,SSW,199,19.0,22.0,94,0.00,,---,0.00,VWS V14.01,2013-06-08 15:09:00,
2013-06-08 11:10:00,76.8,74.9,29.99,SSW,194,15.0,22.0,94,0.00,,---,0.00,VWS V14.01,2013-06-08 15:10:00,
2013-06-08 11:11:00,76.8,74.9,29.99,SSW,200,19.0,20.0,94,0.00,,---,0.00,VWS V14.01,2013-06-08 15:11:00,
2013-06-08 11:12:00,76.8,74.9,29.99,SSW,200,18.0,21.0,94,0.00,,---,0.00,VWS V14.01,2013-06-08 15:12:00,
2013-06-08 11:13:00,76.8,74.9,29.99,SSW,202,18.0,21.0,94,0.00,,---,0.00,VWS V14.01,2013-06-08 15:13:00,
2013-06-08 11:14:00,76.8,74.9,29.99,SSW,202,18.0,21.0,94,0.00,,---,0.00,VWS V14.01,2013-06-08 15:14:00,
2013-06-08 11:15:00,76.8,74.9,29.99,SSW,209,20.0,21.0,94,0.00,,---,0.00,VWS V14.01,2013-06-08 15:15:00,
2013-06-08 11:16:00,76.8,74.9,29.99,SSW,201,18.0,22.0,94,0.00,,---,0.00,VWS V14.01,2013-06-08 15:16:00,
2013-06-08 11:17:00,76.8,74.9,29.99,SSW,206,18.0,22.0,94,0.00,,---,0.00,VWS V14.01,2013-06-08 15:17:00,
2013-06-08 11:18:00,76.8,74.9,29.99,SSW,201,21.0,22.0,94,0.00,,---,0.00,VWS V14.01,2013-06-08 15:18:00,
2013-06-08 11:19:00,76.8,74.9,29.99,SSW,208,17.0,22.0,94,0.00,,---,0.00,VWS V14.01,2013-06-08 15:19:00,
2013-06-08 11:20:00,76.7,74.8,29.99,SSW,207,18.0,22.0,94,0.00,,---,0.00,VWS V14.01,2013-06-08 15:20:00,
2013-06-08 11:21:00,76.7,74.8,29.99,SSW,205,16.0,21.0,94,0.00,,---,0.00,VWS V14.01,2013-06-08 15:21:00,
2013-06-08 11:22:00,76.7,74.8,29.99,SSW,209,19.0,21.0,94,0.00,,---,0.00,VWS V14.01,2013-06-08 15:22:00,
2013-06-08 11:23:00,76.7,74.8,29.99,SSW,209,21.0,21.0,94,0.00,,---,0.00,VWS V14.01,2013-06-08 15:23:00,
2013-06-08 11:24:00,76.7,74.8,29.99,SSW,207,17.0,21.0,94,0.00,,---,0.00,VWS V14.01,2013-06-08 15:24:00,
2013-06-08 11:25:00,76.7,74.8,29.99,SSW,211,21.0,21.0,94,0.00,,---,0.00,VWS V14.01,2013-06-08 15:25:00,
2013-06-08 11:26:00,76.7,74.8,29.99,SSW,213,17.0,21.0,94,0.00,,---,0.00,VWS V14.01,2013-06-08 15:26:00,
2013-06-08 11:27:00,76.7,74.8,29.99,SSW,212,17.0,21.0,94,0.00,,---,0.00,VWS V14.01,2013-06-08 15:27:00,
2013-06-08 11:28:00,76.7,74.8,29.99,SW,215,19.0,22.0,94,0.00,,---,0.00,VWS V14.01,2013-06-08 15:28:00,
2013-06-08 11:29:00,76.7,74.8,29.99,SW,216,19.0,24.0,94,0.00,,---,0.00,VWS V14.01,2013-06-08 15:29:00,
2013-06-08 11:30:00,76.7,74.8,30.00,SW,215,19.0,24.0,94,0.00,,---,0.00,VWS V14.01,2013-06-08 15:30:00,
2013-06-08 11:31:00,76.7,74.8,30.00,SW,215,19.0,22.0,94,0.00,,---,0.00,VWS V14.01,2013-06-08 15:31:00,
2013-06-08 11:32:00,76.7,74.8,30.00,SSW,212,18.0,22.0,94,0.00,,---,0.00,VWS V14.01,2013-06-08 15:32:00,
2013-06-08 11:33:00,76.7,74.8,30.00,SW,215,19.0,22.0,94,0.00,,---,0.00,VWS V14.01,2013-06-08 15:33:00,
2013-06-08 11:34:00,76.7,74.8,30.00,SW,216,18.0,22.0,94,0.00,,---,0.00,VWS V14.01,2013-06-08 15:34:00,
2013-06-08 11:35:00,76.7,74.8,30.00,SW,215,18.0,22.0,94,0.00,,---,0.00,VWS V14.01,2013-06-08 15:35:00,
2013-06-08 11:36:00,76.7,74.8,30.00,SSW,212,19.0,21.0,94,0.00,,---,0.00,VWS V14.01,2013-06-08 15:36:00,
2013-06-08 11:37:00,76.7,74.8,30.00,SSW,208,20.0,21.0,94,0.00,,---,0.00,VWS V14.01,2013-06-08 15:37:00,
2013-06-08 11:38:00,76.7,74.8,30.00,SSW,211,18.0,21.0,94,0.00,,---,0.00,VWS V14.01,2013-06-08 15:38:00,
2013-06-08 11:39:00,76.7,74.8,30.00,SSW,210,17.0,22.0,94,0.00,,---,0.00,VWS V14.01,2013-06-08 15:39:00,
2013-06-08 11:40:00,76.7,74.8,30.00,SSW,208,20.0,22.0,94,0.00,,---,0.00,VWS V14.01,2013-06-08 15:40:00,
2013-06-08 11:41:00,76.6,74.8,30.00,SSW,213,18.0,20.0,94,0.00,,---,0.00,VWS V14.01,2013-06-08 15:41:00,
2013-06-08 11:42:00,76.7,74.8,30.00,SSW,213,17.0,20.0,94,0.00,,---,0.00,VWS V14.01,2013-06-08 15:42:00,
2013-06-08 11:43:00,76.7,74.8,30.00,SSW,211,21.0,21.0,94,0.00,,---,0.00,VWS V14.01,2013-06-08 15:43:00,
2013-06-08 11:44:00,76.7,74.8,30.00,SSW,211,18.0,22.0,94,0.00,,---,0.00,VWS V14.01,2013-06-08 15:44:00,
2013-06-08 11:45:00,76.6,74.8,30.00,SW,215,19.0,23.0,94,0.00,,---,0.00,VWS V14.01,2013-06-08 15:45:00,
2013-06-08 11:46:00,76.6,74.8,30.00,SSW,213,19.0,21.0,94,0.00,,---,0.00,VWS V14.01,2013-06-08 15:46:00,
2013-06-08 11:47:00,76.6,74.8,30.00,SSW,213,19.0,23.0,94,0.00,,---,0.00,VWS V14.01,2013-06-08 15:47:00,
2013-06-08 11:48:00,76.6,74.8,30.00,SW,218,19.0,23.0,94,0.00,,---,0.00,VWS V14.01,2013-06-08 15:48:00,
2013-06-08 11:49:00,76.6,74.4,30.00,SSW,212,18.0,23.0,93,0.00,,---,0.00,VWS V14.01,2013-06-08 15:49:00,
2013-06-08 11:50:00,76.6,74.8,30.00,SSW,213,16.0,23.0,94,0.00,,---,0.00,VWS V14.01,2013-06-08 15:50:00,
2013-06-08 11:51:00,76.6,74.4,30.00,SSW,211,19.0,23.0,93,0.00,,---,0.00,VWS V14.01,2013-06-08 15:51:00,
2013-06-08 11:52:00,76.6,74.4,30.00,SW,216,20.0,23.0,93,0.00,,---,0.00,VWS V14.01,2013-06-08 15:52:00,
2013-06-08 11:53:00,76.6,74.4,30.00,SSW,213,22.0,23.0,93,0.00,,---,0.00,VWS V14.01,2013-06-08 15:53:00,
2013-06-08 11:54:00,76.6,74.4,30.00,SW,214,23.0,23.0,93,0.00,,---,0.00,VWS V14.01,2013-06-08 15:54:00,
2013-06-08 11:55:00,76.6,74.4,30.00,SW,217,19.0,24.0,93,0.00,,---,0.00,VWS V14.01,2013-06-08 15:55:00,
2013-06-08 11:56:00,76.6,74.4,30.00,SW,217,23.0,23.0,93,0.00,,---,0.00,VWS V14.01,2013-06-08 15:56:00,
2013-06-08 11:57:00,76.6,74.4,30.00,SW,215,22.0,23.0,93,0.00,,---,0.00,VWS V14.01,2013-06-08 15:57:00,
2013-06-08 11:58:00,76.6,74.4,30.00,SW,215,20.0,23.0,93,0.00,,---,0.00,VWS V14.01,2013-06-08 15:58:00,
2013-06-08 11:59:00,76.7,74.5,30.00,SW,217,23.0,23.0,93,0.00,,---,0.00,VWS V14.01,2013-06-08 15:59:00,
2013-06-08 12:00:00,76.7,74.5,30.00,SW,215,23.0,23.0,93,0.00,,---,0.00,VWS V14.01,2013-06-08 16:00:00,
2013-06-08 12:01:00,76.7,74.5,30.00,SW,220,22.0,23.0,93,0.00,,---,0.00,VWS V14.01,2013-06-08 16:01:00,
2013-06-08 12:02:00,76.7,74.5,30.00,SW,219,20.0,23.0,93,0.00,,---,0.00,VWS V14.01,2013-06-08 16:02:00,
2013-06-08 12:03:00,76.7,74.5,30.00,SSW,213,20.0,23.0,93,0.00,,---,0.00,VWS V14.01,2013-06-08 16:03:00,
2013-06-08 12:04:00,76.7,74.5,30.00,SW,215,23.0,24.0,93,0.00,,---,0.00,VWS V14.01,2013-06-08 16:04:00,
2013-06-08 12:05:00,76.7,74.5,30.00,SW,215,19.0,24.0,93,0.00,,---,0.00,VWS V14.01,2013-06-08 16:05:00,
2013-06-08 12:06:00,76.7,74.5,30.00,SW,218,22.0,24.0,93,0.00,,---,0.00,VWS V14.01,2013-06-08 16:06:00,
2013-06-08 12:07:00,76.8,74.6,30.00,SW,218,20.0,24.0,93,0.00,,---,0.00,VWS V14.01,2013-06-08 16:07:00,
2013-06-08 12:08:00,76.7,74.5,30.00,SSW,207,21.0,24.0,93,0.00,,---,0.00,VWS V14.01,2013-06-08 16:08:00,
2013-06-08 12:09:00,76.7,74.5,30.00,SW,215,22.0,24.0,93,0.00,,---,0.00,VWS V14.01,2013-06-08 16:09:00,
2013-06-08 12:10:00,76.7,74.5,30.00,SSW,210,20.0,24.0,93,0.00,,---,0.00,VWS V14.01,2013-06-08 16:10:00,
2013-06-08 12:11:00,76.7,74.2,30.00,SSW,211,25.0,26.0,92,0.00,,---,0.00,VWS V14.01,2013-06-08 16:11:00,
2013-06-08 12:12:00,76.7,74.2,30.00,SSW,211,22.0,26.0,92,0.00,,---,0.00,VWS V14.01,2013-06-08 16:12:00,
2013-06-08 12:13:00,76.7,74.2,30.00,SSW,213,20.0,26.0,92,0.00,,---,0.00,VWS V14.01,2013-06-08 16:13:00,
2013-06-08 12:14:00,76.7,74.2,30.00,SW,215,20.0,26.0,92,0.00,,---,0.00,VWS V14.01,2013-06-08 16:14:00,
2013-06-08 12:15:00,76.7,74.2,29.99,SSW,212,20.0,26.0,92,0.00,,---,0.00,VWS V14.01,2013-06-08 16:15:00,
2013-06-08 12:16:00,76.7,74.2,29.99,SSW,213,17.0,25.0,92,0.00,,---,0.00,VWS V14.01,2013-06-08 16:16:00,
2013-06-08 12:17:00,76.8,74.6,29.99,SSW,213,20.0,25.0,93,0.00,,---,0.00,VWS V14.01,2013-06-08 16:17:00,
2013-06-08 12:18:00,76.7,74.2,29.99,SW,217,24.0,25.0,92,0.00,,---,0.00,VWS V14.01,2013-06-08 16:18:00,
2013-06-08 12:19:00,76.7,74.2,29.99,SW,214,21.0,25.0,92,0.00,,---,0.00,VWS V14.01,2013-06-08 16:19:00,
2013-06-08 12:20:00,76.7,74.2,29.99,SSW,213,22.0,26.0,92,0.00,,---,0.00,VWS V14.01,2013-06-08 16:20:00,
2013-06-08 12:21:00,76.7,74.2,29.99,SSW,205,23.0,24.0,92,0.00,,---,0.00,VWS V14.01,2013-06-08 16:21:00,
2013-06-08 12:22:00,76.7,74.2,29.99,SSW,213,21.0,26.0,92,0.00,,---,0.00,VWS V14.01,2013-06-08 16:22:00,
2013-06-08 12:23:00,76.7,74.2,29.99,SSW,210,21.0,26.0,92,0.00,,---,0.00,VWS V14.01,2013-06-08 16:23:00,
2013-06-08 12:24:00,76.7,74.2,29.99,SW,214,22.0,26.0,92,0.00,,---,0.00,VWS V14.01,2013-06-08 16:24:00,
2013-06-08 12:25:00,76.7,74.2,29.99,SSW,211,23.0,26.0,92,0.00,,---,0.00,VWS V14.01,2013-06-08 16:25:00,
2013-06-08 12:26:00,76.7,74.2,29.99,SW,215,22.0,24.0,92,0.00,,---,0.00,VWS V14.01,2013-06-08 16:26:00,
2013-06-08 12:27:00,76.7,74.2,29.99,SSW,213,22.0,24.0,92,0.00,,---,0.00,VWS V14.01,2013-06-08 16:27:00,
2013-06-08 12:28:00,76.7,74.2,29.99,SSW,213,19.0,24.0,92,0.00,,---,0.00,VWS V14.01,2013-06-08 16:28:00,
2013-06-08 12:29:00,76.7,74.2,29.99,SSW,210,21.0,24.0,92,0.00,,---,0.00,VWS V14.01,2013-06-08 16:29:00,
2013-06-08 12:30:00,76.7,74.2,29.99,SW,216,19.0,26.0,92,0.00,,---,0.00,VWS V14.01,2013-06-08 16:30:00,
2013-06-08 12:31:00,76.7,74.2,29.99,SW,214,23.0,23.0,92,0.00,,---,0.00,VWS V14.01,2013-06-08 16:31:00,
2013-06-08 12:32:00,76.7,74.2,29.99,SSW,213,22.0,25.0,92,0.00,,---,0.00,VWS V14.01,2013-06-08 16:32:00,
2013-06-08 12:33:00,76.7,74.2,29.99,SSW,211,23.0,25.0,92,0.00,,---,0.00,VWS V14.01,2013-06-08 16:33:00,
2013-06-08 12:34:00,76.7,74.2,29.99,SSW,211,20.0,25.0,92,0.00,,---,0.00,VWS V14.01,2013-06-08 16:34:00,
2013-06-08 12:35:00,76.7,74.2,29.99,SSW,209,23.0,25.0,92,0.00,,---,0.00,VWS V14.01,2013-06-08 16:35:00,
2013-06-08 12:36:00,76.6,74.1,29.99,SSW,210,21.0,25.0,92,0.00,,---,0.00,VWS V14.01,2013-06-08 16:36:00,
2013-06-08 12:37:00,76.6,74.1,29.99,SSW,211,22.0,25.0,92,0.00,,---,0.00,VWS V14.01,2013-06-08 16:37:00,
2013-06-08 12:38:00,76.7,74.2,29.99,SSW,208,25.0,25.0,92,0.00,,---,0.00,VWS V14.01,2013-06-08 16:38:00,
2013-06-08 12:39:00,76.7,74.2,29.99,SSW,207,22.0,25.0,92,0.00,,---,0.00,VWS V14.01,2013-06-08 16:39:00,
2013-06-08 12:40:00,76.7,74.2,29.99,SSW,202,20.0,25.0,92,0.00,,---,0.00,VWS V14.01,2013-06-08 16:40:00,
2013-06-08 12:41:00,76.7,74.2,29.99,SSW,209,19.0,23.0,92,0.00,,---,0.00,VWS V14.01,2013-06-08 16:41:00,
2013-06-08 12:42:00,76.7,74.2,29.99,SSW,211,19.0,24.0,92,0.00,,---,0.00,VWS V14.01,2013-06-08 16:42:00,
2013-06-08 12:43:00,76.7,74.2,29.99,SSW,209,25.0,26.0,92,0.00,,---,0.00,VWS V14.01,2013-06-08 16:43:00,
2013-06-08 12:44:00,76.6,74.1,29.99,SSW,213,21.0,26.0,92,0.00,,---,0.00,VWS V14.01,2013-06-08 16:44:00,
2013-06-08 12:45:00,76.6,74.1,29.99,SSW,208,24.0,26.0,92,0.00,,---,0.00,VWS V14.01,2013-06-08 16:45:00,
2013-06-08 12:46:00,76.6,74.1,29.99,SSW,213,20.0,24.0,92,0.00,,---,0.00,VWS V14.01,2013-06-08 16:46:00,
2013-06-08 12:47:00,76.7,74.2,29.99,SSW,210,23.0,25.0,92,0.00,,---,0.00,VWS V14.01,2013-06-08 16:47:00,
2013-06-08 12:48:00,76.7,74.2,29.99,SSW,209,20.0,25.0,92,0.00,,---,0.00,VWS V14.01,2013-06-08 16:48:00,
2013-06-08 12:49:00,76.7,74.2,29.99,SSW,208,24.0,25.0,92,0.00,,---,0.00,VWS V14.01,2013-06-08 16:49:00,
2013-06-08 12:50:00,76.7,74.2,29.99,SSW,213,19.0,25.0,92,0.00,,---,0.00,VWS V14.01,2013-06-08 16:50:00,
2013-06-08 12:51:00,76.7,74.2,29.99,SSW,213,19.0,24.0,92,0.00,,---,0.00,VWS V14.01,2013-06-08 16:51:00,
2013-06-08 12:52:00,76.7,74.2,29.99,SSW,213,23.0,26.0,92,0.00,,---,0.00,VWS V14.01,2013-06-08 16:52:00,
2013-06-08 12:53:00,76.6,74.1,29.99,SSW,209,22.0,26.0,92,0.00,,---,0.00,VWS V14.01,2013-06-08 16:53:00,
2013-06-08 12:54:00,76.6,74.1,29.99,SSW,209,21.0,26.0,92,0.00,,---,0.00,VWS V14.01,2013-06-08 16:54:00,
2013-06-08 12:55:00,76.6,74.1,29.99,SW,214,20.0,27.0,92,0.00,,---,0.00,VWS V14.01,2013-06-08 16:55:00,
2013-06-08 12:56:00,76.6,74.1,29.99,SW,214,21.0,25.0,92,0.00,,---,0.00,VWS V14.01,2013-06-08 16:56:00,
2013-06-08 12:57:00,76.6,74.1,29.99,SSW,211,26.0,26.0,92,0.00,,---,0.00,VWS V14.01,2013-06-08 16:57:00,
2013-06-08 12:58:00,76.6,74.1,29.99,SSW,213,25.0,27.0,92,0.00,,---,0.00,VWS V14.01,2013-06-08 16:58:00,
2013-06-08 12:59:00,76.6,74.1,29.99,SSW,213,23.0,27.0,92,0.00,,---,0.00,VWS V14.01,2013-06-08 16:59:00,
2013-06-08 13:00:00,76.6,74.1,29.99,SW,215,22.0,27.0,92,0.00,,---,0.00,VWS V14.01,2013-06-08 17:00:00,
2013-06-08 13:01:00,76.6,74.1,29.99,SSW,211,21.0,25.0,92,0.00,,---,0.00,VWS V14.01,2013-06-08 17:01:00,
2013-06-08 13:02:00,76.6,74.1,29.99,SSW,209,25.0,25.0,92,0.00,,---,0.00,VWS V14.01,2013-06-08 17:02:00,
2013-06-08 13:03:00,76.6,74.1,29.99,SSW,210,21.0,25.0,92,0.00,,---,0.00,VWS V14.01,2013-06-08 17:03:00,
2013-06-08 13:04:00,76.6,74.1,29.99,SSW,208,24.0,26.0,92,0.00,,---,0.00,VWS V14.01,2013-06-08 17:04:00,
2013-06-08 13:05:00,76.6,74.1,29.99,SSW,211,26.0,28.0,92,0.00,,---,0.00,VWS V14.01,2013-06-08 17:05:00,
2013-06-08 13:06:00,76.6,74.1,29.99,SSW,210,23.0,26.0,92,0.00,,---,0.00,VWS V14.01,2013-06-08 17:06:00,
2013-06-08 13:07:00,76.6,74.1,29.99,SSW,209,19.0,26.0,92,0.00,,---,0.00,VWS V14.01,2013-06-08 17:07:00,
2013-06-08 13:08:00,76.6,74.1,29.99,SSW,210,22.0,27.0,92,0.00,,---,0.00,VWS V14.01,2013-06-08 17:08:00,
2013-06-08 13:09:00,76.6,74.1,29.99,SSW,213,23.0,27.0,92,0.00,,---,0.00,VWS V14.01,2013-06-08 17:09:00,
2013-06-08 13:10:00,76.6,74.1,29.99,SSW,211,21.0,27.0,92,0.00,,---,0.00,VWS V14.01,2013-06-08 17:10:00,
2013-06-08 13:11:00,76.6,74.1,29.99,SSW,211,25.0,26.0,92,0.00,,---,0.00,VWS V14.01,2013-06-08 17:11:00,
2013-06-08 13:12:00,76.6,74.1,29.99,SSW,209,23.0,26.0,92,0.00,,---,0.00,VWS V14.01,2013-06-08 17:12:00,
2013-06-08 13:13:00,76.6,74.1,29.99,SSW,202,25.0,28.0,92,0.00,,---,0.00,VWS V14.01,2013-06-08 17:13:00,
2013-06-08 13:14:00,76.7,74.2,29.99,SW,215,23.0,28.0,92,0.00,,---,0.00,VWS V14.01,2013-06-08 17:14:00,
2013-06-08 13:15:00,76.6,73.8,29.99,SSW,204,22.0,28.0,91,0.00,,---,0.00,VWS V14.01,2013-06-08 17:15:00,
2013-06-08 13:16:00,76.6,74.1,29.99,SSW,207,21.0,26.0,92,0.00,,---,0.00,VWS V14.01,2013-06-08 17:16:00,
2013-06-08 13:17:00,76.6,74.1,29.99,SSW,212,21.0,26.0,92,0.00,,---,0.00,VWS V14.01,2013-06-08 17:17:00,
2013-06-08 13:18:00,76.7,74.2,29.99,SSW,211,22.0,26.0,92,0.00,,---,0.00,VWS V14.01,2013-06-08 17:18:00,
2013-06-08 13:19:00,76.6,74.1,29.99,SW,215,20.0,26.0,92,0.00,,---,0.00,VWS V14.01,2013-06-08 17:19:00,
2013-06-08 13:20:00,76.6,74.1,29.99,SW,215,20.0,27.0,92,0.00,,---,0.00,VWS V14.01,2013-06-08 17:20:00,
2013-06-08 13:21:00,76.6,74.1,29.99,SSW,208,22.0,26.0,92,0.00,,---,0.00,VWS V14.01,2013-06-08 17:21:00,
2013-06-08 13:22:00,76.6,74.1,29.99,SSW,209,24.0,26.0,92,0.00,,---,0.00,VWS V14.01,2013-06-08 17:22:00,
2013-06-08 13:23:00,76.6,74.1,29.99,SW,215,19.0,26.0,92,0.00,,---,0.00,VWS V14.01,2013-06-08 17:23:00,
2013-06-08 13:24:00,76.6,74.1,29.99,SSW,207,20.0,26.0,92,0.00,,---,0.00,VWS V14.01,2013-06-08 17:24:00,
2013-06-08 13:25:00,76.7,74.2,29.99,SSW,211,20.0,26.0,92,0.00,,---,0.00,VWS V14.01,2013-06-08 17:25:00,
2013-06-08 13:26:00,76.7,74.2,29.99,SSW,212,21.0,22.0,92,0.00,,---,0.00,VWS V14.01,2013-06-08 17:26:00,
2013-06-08 13:27:00,76.7,74.2,29.99,SW,215,24.0,27.0,92,0.00,,---,0.00,VWS V14.01,2013-06-08 17:27:00,
2013-06-08 13:28:00,76.6,74.1,29.99,SSW,211,22.0,27.0,92,0.00,,---,0.00,VWS V14.01,2013-06-08 17:28:00,
2013-06-08 13:29:00,76.7,74.2,29.99,SSW,209,22.0,27.0,92,0.00,,---,0.00,VWS V14.01,2013-06-08 17:29:00,
2013-06-08 13:30:00,76.6,73.8,29.99,SSW,212,22.0,27.0,91,0.00,,---,0.00,VWS V14.01,2013-06-08 17:30:00,
2013-06-08 13:31:00,76.6,74.1,29.99,SSW,213,21.0,26.0,92,0.00,,---,0.00,VWS V14.01,2013-06-08 17:31:00,
2013-06-08 13:32:00,76.6,74.1,29.99,SW,214,20.0,26.0,92,0.00,,---,0.00,VWS V14.01,2013-06-08 17:32:00,
2013-06-08 13:33:00,76.6,74.1,29.99,SW,217,23.0,26.0,92,0.00,,---,0.00,VWS V14.01,2013-06-08 17:33:00,
2013-06-08 13:34:00,76.6,74.1,29.99,SSW,211,25.0,26.0,92,0.00,,---,0.00,VWS V14.01,2013-06-08 17:34:00,
2013-06-08 13:35:00,76.6,74.1,29.99,SSW,209,25.0,26.0,92,0.00,,---,0.00,VWS V14.01,2013-06-08 17:35:00,
2013-06-08 13:36:00,76.6,74.1,29.99,SSW,213,22.0,28.0,92,0.00,,---,0.00,VWS V14.01,2013-06-08 17:36:00,
2013-06-08 13:37:00,76.6,74.1,29.99,SSW,212,19.0,28.0,92,0.00,,---,0.00,VWS V14.01,2013-06-08 17:37:00,
2013-06-08 13:38:00,76.6,74.1,29.99,SW,220,20.0,28.0,92,0.00,,---,0.00,VWS V14.01,2013-06-08 17:38:00,
2013-06-08 13:39:00,76.6,74.1,29.99,SSW,209,25.0,28.0,92,0.00,,---,0.00,VWS V14.01,2013-06-08 17:39:00,
2013-06-08 13:40:00,76.6,73.8,29.99,SW,217,24.0,28.0,91,0.00,,---,0.00,VWS V14.01,2013-06-08 17:40:00,
2013-06-08 13:41:00,76.6,74.1,29.99,SW,215,22.0,26.0,92,0.00,,---,0.00,VWS V14.01,2013-06-08 17:41:00,
2013-06-08 13:42:00,76.6,74.1,29.99,SSW,211,21.0,26.0,92,0.00,,---,0.00,VWS V14.01,2013-06-08 17:42:00,
2013-06-08 13:43:00,76.7,74.2,29.99,SW,214,22.0,26.0,92,0.00,,---,0.00,VWS V14.01,2013-06-08 17:43:00,
2013-06-08 13:44:00,76.7,74.2,29.99,SW,215,20.0,27.0,92,0.00,,---,0.00,VWS V14.01,2013-06-08 17:44:00,
2013-06-08 13:45:00,76.6,74.1,29.99,SW,215,20.0,27.0,92,0.00,,---,0.00,VWS V14.01,2013-06-08 17:45:00,
2013-06-08 13:46:00,76.6,74.1,29.99,SSW,213,21.0,26.0,92,0.00,,---,0.00,VWS V14.01,2013-06-08 17:46:00,
2013-06-08 13:47:00,76.6,74.1,29.99,SSW,212,20.0,26.0,92,0.00,,---,0.00,VWS V14.01,2013-06-08 17:47:00,
2013-06-08 13:48:00,76.6,74.1,29.99,SSW,212,20.0,26.0,92,0.00,,---,0.00,VWS V14.01,2013-06-08 17:48:00,
2013-06-08 13:49:00,76.6,74.1,29.99,SSW,212,20.0,26.0,92,0.00,,---,0.00,VWS V14.01,2013-06-08 17:49:00,
2013-06-08 13:50:00,76.6,74.1,29.99,SW,215,23.0,26.0,92,0.00,,---,0.00,VWS V14.01,2013-06-08 17:50:00,
2013-06-08 13:51:00,76.6,74.1,29.99,SW,217,26.0,26.0,92,0.00,,---,0.00,VWS V14.01,2013-06-08 17:51:00,
2013-06-08 13:52:00,76.5,74.0,29.99,SW,219,21.0,27.0,92,0.00,,---,0.00,VWS V14.01,2013-06-08 17:52:00,
2013-06-08 13:53:00,76.6,74.1,29.99,SW,218,22.0,27.0,92,0.00,,---,0.00,VWS V14.01,2013-06-08 17:53:00,
2013-06-08 13:54:00,76.6,74.1,29.99,SW,216,25.0,27.0,92,0.00,,---,0.00,VWS V14.01,2013-06-08 17:54:00,
2013-06-08 13:55:00,76.6,74.1,29.99,SSW,211,22.0,27.0,92,0.00,,---,0.00,VWS V14.01,2013-06-08 17:55:00,
2013-06-08 13:56:00,76.6,74.1,29.99,SW,215,23.0,26.0,92,0.00,,---,0.00,VWS V14.01,2013-06-08 17:56:00,
2013-06-08 13:57:00,76.7,74.2,29.99,SW,219,24.0,26.0,92,0.00,,---,0.00,VWS V14.01,2013-06-08 17:57:00,
2013-06-08 13:58:00,76.6,74.1,29.99,SSW,213,24.0,26.0,92,0.00,,---,0.00,VWS V14.01,2013-06-08 17:58:00,
2013-06-08 13:59:00,76.6,74.1,29.99,SSW,205,21.0,26.0,92,0.00,,---,0.00,VWS V14.01,2013-06-08 17:59:00,
2013-06-08 14:00:00,76.6,74.1,29.99,SSW,210,23.0,26.0,92,0.00,,---,0.00,VWS V14.01,2013-06-08 18:00:00,
2013-06-08 14:01:00,76.6,74.1,29.99,SW,215,25.0,27.0,92,0.00,,---,0.00,VWS V14.01,2013-06-08 18:01:00,
2013-06-08 14:02:00,76.6,74.1,29.99,SW,215,23.0,27.0,92,0.00,,---,0.00,VWS V14.01,2013-06-08 18:02:00,
2013-06-08 14:03:00,76.6,74.1,29.99,SSW,206,22.0,27.0,92,0.00,,---,0.00,VWS V14.01,2013-06-08 18:03:00,
2013-06-08 14:04:00,76.6,74.1,29.99,SSW,209,22.0,27.0,92,0.00,,---,0.00,VWS V14.01,2013-06-08 18:04:00,
2013-06-08 14:05:00,76.5,74.0,29.99,SSW,211,20.0,27.0,92,0.00,,---,0.00,VWS V14.01,2013-06-08 18:05:00,
2013-06-08 14:06:00,76.5,74.0,29.99,SSW,206,23.0,25.0,92,0.00,,---,0.00,VWS V14.01,2013-06-08 18:06:00,
2013-06-08 14:07:00,76.6,74.1,29.99,SW,216,25.0,25.0,92,0.00,,---,0.00,VWS V14.01,2013-06-08 18:07:00,
2013-06-08 14:08:00,76.5,74.0,29.99,SSW,209,21.0,26.0,92,0.00,,---,0.00,VWS V14.01,2013-06-08 18:08:00,
2013-06-08 14:09:00,76.5,74.0,29.99,SSW,213,21.0,26.0,92,0.00,,---,0.00,VWS V14.01,2013-06-08 18:09:00,
2013-06-08 14:10:00,76.5,74.0,29.99,SSW,211,20.0,26.0,92,0.00,,---,0.00,VWS V14.01,2013-06-08 18:10:00,
2013-06-08 14:11:00,76.6,74.1,29.99,SSW,210,18.0,26.0,92,0.00,,---,0.00,VWS V14.01,2013-06-08 18:11:00,
2013-06-08 14:12:00,76.6,74.1,29.99,SW,215,21.0,26.0,92,0.00,,---,0.00,VWS V14.01,2013-06-08 18:12:00,
2013-06-08 14:13:00,76.6,74.1,29.99,SSW,210,23.0,26.0,92,0.00,,---,0.00,VWS V14.01,2013-06-08 18:13:00,
2013-06-08 14:14:00,76.6,74.1,29.99,SSW,210,22.0,26.0,92,0.00,,---,0.00,VWS V14.01,2013-06-08 18:14:00,
2013-06-08 14:15:00,76.6,74.1,29.99,SW,214,22.0,28.0,92,0.00,,---,0.00,VWS V14.01,2013-06-08 18:15:00,
2013-06-08 14:16:00,76.6,74.1,29.99,SSW,211,19.0,24.0,92,0.00,,---,0.00,VWS V14.01,2013-06-08 18:16:00,
2013-06-08 14:17:00,76.6,74.1,29.99,SSW,209,18.0,24.0,92,0.00,,---,0.00,VWS V14.01,2013-06-08 18:17:00,
2013-06-08 14:18:00,76.6,74.1,29.99,SSW,211,26.0,27.0,92,0.00,,---,0.00,VWS V14.01,2013-06-08 18:18:00,
2013-06-08 14:19:00,76.6,74.1,29.99,SSW,209,24.0,27.0,92,0.00,,---,0.00,VWS V14.01,2013-06-08 18:19:00,
2013-06-08 14:20:00,76.6,74.1,29.99,SSW,209,25.0,27.0,92,0.00,,---,0.00,VWS V14.01,2013-06-08 18:20:00,
2013-06-08 14:21:00,76.6,74.1,29.99,SSW,208,23.0,25.0,92,0.00,,---,0.00,VWS V14.01,2013-06-08 18:21:00,
2013-06-08 14:22:00,76.6,74.1,29.99,SSW,208,23.0,25.0,92,0.00,,---,0.00,VWS V14.01,2013-06-08 18:22:00,
2013-06-08 14:23:00,76.6,74.1,29.99,SSW,203,19.0,25.0,92,0.00,,---,0.00,VWS V14.01,2013-06-08 18:23:00,
2013-06-08 14:24:00,76.6,74.1,29.99,SSW,196,23.0,25.0,92,0.00,,---,0.00,VWS V14.01,2013-06-08 18:24:00,
2013-06-08 14:25:00,76.6,74.1,29.99,SSW,207,24.0,26.0,92,0.00,,---,0.00,VWS V14.01,2013-06-08 18:25:00,
2013-06-08 14:26:00,76.6,74.1,29.99,SSW,202,23.0,25.0,92,0.00,,---,0.00,VWS V14.01,2013-06-08 18:26:00,
2013-06-08 14:27:00,76.7,74.2,29.99,SSW,210,25.0,25.0,92,0.00,,---,0.00,VWS V14.01,2013-06-08 18:27:00,
2013-06-08 14:28:00,76.6,74.1,29.99,SSW,207,19.0,26.0,92,0.00,,---,0.00,VWS V14.01,2013-06-08 18:28:00,
2013-06-08 14:29:00,76.6,74.1,29.99,SSW,207,22.0,26.0,92,0.00,,---,0.00,VWS V14.01,2013-06-08 18:29:00,
2013-06-08 14:30:00,76.6,74.1,29.98,SSW,204,20.0,26.0,92,0.00,,---,0.00,VWS V14.01,2013-06-08 18:30:00,
2013-06-08 14:31:00,76.7,74.2,29.98,SSW,209,17.0,20.0,92,0.00,,---,0.00,VWS V14.01,2013-06-08 18:31:00,
2013-06-08 14:32:00,76.7,74.2,29.98,SSW,205,20.0,24.0,92,0.00,,---,0.00,VWS V14.01,2013-06-08 18:32:00,
2013-06-08 14:33:00,76.6,74.1,29.98,SSW,211,17.0,24.0,92,0.00,,---,0.00,VWS V14.01,2013-06-08 18:33:00,
2013-06-08 14:34:00,76.6,74.1,29.98,SSW,209,22.0,27.0,92,0.00,,---,0.00,VWS V14.01,2013-06-08 18:34:00,
2013-06-08 14:35:00,76.6,74.1,29.98,SSW,201,21.0,27.0,92,0.00,,---,0.00,VWS V14.01,2013-06-08 18:35:00,
2013-06-08 14:36:00,76.6,74.1,29.98,SSW,205,17.0,22.0,92,0.00,,---,0.00,VWS V14.01,2013-06-08 18:36:00,
2013-06-08 14:37:00,76.6,74.1,29.98,SSW,206,18.0,25.0,92,0.00,,---,0.00,VWS V14.01,2013-06-08 18:37:00,
2013-06-08 14:38:00,76.6,74.1,29.98,SSW,202,22.0,26.0,92,0.00,,---,0.00,VWS V14.01,2013-06-08 18:38:00,
2013-06-08 14:39:00,76.6,74.1,29.98,SSW,206,24.0,28.0,92,0.00,,---,0.00,VWS V14.01,2013-06-08 18:39:00,
2013-06-08 14:40:00,76.6,74.1,29.98,SSW,202,25.0,28.0,92,0.00,,---,0.00,VWS V14.01,2013-06-08 18:40:00,
2013-06-08 14:41:00,76.6,74.1,29.98,SSW,207,23.0,25.0,92,0.00,,---,0.00,VWS V14.01,2013-06-08 18:41:00,
2013-06-08 14:42:00,76.6,74.1,29.98,SSW,210,26.0,26.0,92,0.00,,---,0.00,VWS V14.01,2013-06-08 18:42:00,
2013-06-08 14:43:00,76.6,74.1,29.98,SSW,213,26.0,29.0,92,0.00,,---,0.00,VWS V14.01,2013-06-08 18:43:00,
2013-06-08 14:44:00,76.5,74.0,29.98,SSW,202,23.0,29.0,92,0.00,,---,0.00,VWS V14.01,2013-06-08 18:44:00,
2013-06-08 14:45:00,76.6,74.1,29.98,SSW,203,28.0,29.0,92,0.00,,---,0.00,VWS V14.01,2013-06-08 18:45:00,
2013-06-08 14:46:00,76.6,74.1,29.98,SSW,208,22.0,28.0,92,0.00,,---,0.00,VWS V14.01,2013-06-08 18:46:00,
2013-06-08 14:47:00,76.6,74.1,29.98,SSW,205,19.0,29.0,92,0.00,,---,0.00,VWS V14.01,2013-06-08 18:47:00,
2013-06-08 14:48:00,76.6,74.1,29.98,SW,214,23.0,29.0,92,0.00,,---,0.00,VWS V14.01,2013-06-08 18:48:00,
2013-06-08 14:49:00,76.6,74.1,29.98,SSW,207,23.0,29.0,92,0.00,,---,0.00,VWS V14.01,2013-06-08 18:49:00,
2013-06-08 14:50:00,76.6,74.1,29.98,SSW,207,23.0,29.0,92,0.00,,---,0.00,VWS V14.01,2013-06-08 18:50:00,
2013-06-08 14:51:00,76.6,74.1,29.98,SSW,207,22.0,25.0,92,0.00,,---,0.00,VWS V14.01,2013-06-08 18:51:00,
2013-06-08 14:52:00,76.6,74.1,29.98,SSW,209,25.0,27.0,92,0.00,,---,0.00,VWS V14.01,2013-06-08 18:52:00,
2013-06-08 14:53:00,76.6,74.1,29.98,SSW,207,21.0,27.0,92,0.00,,---,0.00,VWS V14.01,2013-06-08 18:53:00,
2013-06-08 14:54:00,76.6,74.1,29.98,SSW,205,20.0,27.0,92,0.00,,---,0.00,VWS V14.01,2013-06-08 18:54:00,
2013-06-08 14:55:00,76.6,74.1,29.98,SSW,201,23.0,27.0,92,0.00,,---,0.00,VWS V14.01,2013-06-08 18:55:00,
2013-06-08 14:56:00,76.6,74.1,29.98,SSW,205,23.0,28.0,92,0.00,,---,0.00,VWS V14.01,2013-06-08 18:56:00,
2013-06-08 14:57:00,76.6,74.1,29.98,SSW,208,22.0,28.0,92,0.00,,---,0.00,VWS V14.01,2013-06-08 18:57:00,
2013-06-08 14:58:00,76.7,74.2,29.98,SSW,209,27.0,28.0,92,0.00,,---,0.00,VWS V14.01,2013-06-08 18:58:00,
2013-06-08 14:59:00,76.7,74.2,29.98,SSW,205,24.0,28.0,92,0.00,,---,0.00,VWS V14.01,2013-06-08 18:59:00,
2013-06-08 15:00:00,76.6,74.1,29.98,SSW,212,25.0,28.0,92,0.00,,---,0.00,VWS V14.01,2013-06-08 19:00:00,
2013-06-08 15:01:00,76.6,74.1,29.98,SSW,206,21.0,25.0,92,0.00,,---,0.00,VWS V14.01,2013-06-08 19:01:00,
2013-06-08 15:02:00,76.7,74.2,29.98,SSW,205,26.0,26.0,92,0.00,,---,0.00,VWS V14.01,2013-06-08 19:02:00,
2013-06-08 15:03:00,76.6,74.1,29.98,SSW,209,25.0,28.0,92,0.00,,---,0.00,VWS V14.01,2013-06-08 19:03:00,
2013-06-08 15:04:00,76.7,74.2,29.98,SSW,211,22.0,28.0,92,0.00,,---,0.00,VWS V14.01,2013-06-08 19:04:00,
2013-06-08 15:05:00,76.7,74.2,29.98,SSW,205,26.0,28.0,92,0.00,,---,0.00,VWS V14.01,2013-06-08 19:05:00,
2013-06-08 15:06:00,76.7,74.2,29.98,SSW,210,24.0,28.0,92,0.00,,---,0.00,VWS V14.01,2013-06-08 19:06:00,
2013-06-08 15:07:00,76.6,74.1,29.98,SSW,209,25.0,28.0,92,0.00,,---,0.00,VWS V14.01,2013-06-08 19:07:00,
2013-06-08 15:08:00,76.7,74.2,29.98,SSW,209,23.0,28.0,92,0.00,,---,0.00,VWS V14.01,2013-06-08 19:08:00,
2013-06-08 15:09:00,76.6,74.1,29.98,SSW,200,23.0,28.0,92,0.00,,---,0.00,VWS V14.01,2013-06-08 19:09:00,
2013-06-08 15:10:00,76.7,74.2,29.98,North,360,22.0,28.0,92,0.00,,---,0.00,VWS V14.01,2013-06-08 19:10:00,
2013-06-08 15:11:00,76.7,74.2,29.98,SSW,211,26.0,27.0,92,0.00,,---,0.00,VWS V14.01,2013-06-08 19:11:00,
2013-06-08 15:12:00,76.7,74.2,29.98,SW,214,23.0,27.0,92,0.00,,---,0.00,VWS V14.01,2013-06-08 19:12:00,
2013-06-08 15:13:00,76.7,74.2,29.98,SSW,209,28.0,31.0,92,0.00,,---,0.00,VWS V14.01,2013-06-08 19:13:00,
2013-06-08 15:14:00,76.7,74.2,29.98,SSW,207,25.0,31.0,92,0.00,,---,0.00,VWS V14.01,2013-06-08 19:14:00,
2013-06-08 15:15:00,76.7,74.2,29.98,SSW,211,33.0,33.0,92,0.00,,---,0.00,VWS V14.01,2013-06-08 19:15:00,
2013-06-08 15:16:00,76.7,74.2,29.98,SSW,202,26.0,33.0,92,0.00,,---,0.00,VWS V14.01,2013-06-08 19:16:00,
2013-06-08 15:17:00,76.7,74.2,29.98,SSW,208,24.0,33.0,92,0.00,,---,0.00,VWS V14.01,2013-06-08 19:17:00,
2013-06-08 15:18:00,76.8,74.3,29.98,SSW,205,21.0,33.0,92,0.00,,---,0.00,VWS V14.01,2013-06-08 19:18:00,
2013-06-08 15:19:00,76.8,74.3,29.98,SW,219,22.0,33.0,92,0.00,,---,0.00,VWS V14.01,2013-06-08 19:19:00,
2013-06-08 15:20:00,76.8,74.3,29.98,SSW,211,22.0,33.0,92,0.00,,---,0.00,VWS V14.01,2013-06-08 19:20:00,
2013-06-08 15:21:00,76.7,73.9,29.98,SSW,202,19.0,24.0,91,0.00,,---,0.00,VWS V14.01,2013-06-08 19:21:00,
2013-06-08 15:22:00,76.8,74.3,29.98,SSW,206,17.0,25.0,92,0.00,,---,0.00,VWS V14.01,2013-06-08 19:22:00,
2013-06-08 15:23:00,76.8,74.3,29.98,SSW,205,21.0,25.0,92,0.00,,---,0.00,VWS V14.01,2013-06-08 19:23:00,
2013-06-08 15:24:00,76.8,74.3,29.98,SW,216,22.0,25.0,92,0.00,,---,0.00,VWS V14.01,2013-06-08 19:24:00,
2013-06-08 15:25:00,76.7,74.2,29.98,SW,214,24.0,26.0,92,0.00,,---,0.00,VWS V14.01,2013-06-08 19:25:00,
2013-06-08 15:26:00,76.7,74.2,29.98,SW,221,21.0,27.0,92,0.00,,---,0.00,VWS V14.01,2013-06-08 19:26:00,
2013-06-08 15:27:00,76.7,74.2,29.98,SW,219,22.0,27.0,92,0.00,,---,0.00,VWS V14.01,2013-06-08 19:27:00,
2013-06-08 15:28:00,76.7,74.2,29.98,SW,215,22.0,27.0,92,0.00,,---,0.00,VWS V14.01,2013-06-08 19:28:00,
2013-06-08 15:29:00,76.7,74.2,29.98,SSW,213,25.0,27.0,92,0.00,,---,0.00,VWS V14.01,2013-06-08 19:29:00,
2013-06-08 15:30:00,76.6,74.1,29.99,SW,215,22.0,27.0,92,0.00,,---,0.00,VWS V14.01,2013-06-08 19:30:00,
2013-06-08 15:31:00,76.7,74.2,29.99,SW,215,25.0,26.0,92,0.00,,---,0.00,VWS V14.01,2013-06-08 19:31:00,
2013-06-08 15:32:00,76.6,74.1,29.99,SSW,205,24.0,26.0,92,0.00,,---,0.00,VWS V14.01,2013-06-08 19:32:00,
2013-06-08 15:33:00,76.6,74.1,29.99,SSW,208,22.0,26.0,92,0.00,,---,0.00,VWS V14.01,2013-06-08 19:33:00,
2013-06-08 15:34:00,76.6,74.1,29.99,SSW,213,18.0,26.0,92,0.00,,---,0.00,VWS V14.01,2013-06-08 19:34:00,
2013-06-08 15:35:00,76.6,74.1,29.99,SW,217,20.0,26.0,92,0.00,,---,0.00,VWS V14.01,2013-06-08 19:35:00,
2013-06-08 15:36:00,76.6,74.1,29.99,SSW,207,24.0,24.0,92,0.00,,---,0.00,VWS V14.01,2013-06-08 19:36:00,
2013-06-08 15:37:00,76.6,74.1,29.99,SSW,208,20.0,25.0,92,0.00,,---,0.00,VWS V14.01,2013-06-08 19:37:00,
2013-06-08 15:38:00,76.6,74.1,29.99,SSW,210,20.0,25.0,92,0.00,,---,0.00,VWS V14.01,2013-06-08 19:38:00,
2013-06-08 15:39:00,76.6,74.1,29.99,SSW,213,22.0,25.0,92,0.00,,---,0.00,VWS V14.01,2013-06-08 19:39:00,
2013-06-08 15:40:00,76.5,74.0,29.99,SSW,212,22.0,25.0,92,0.00,,---,0.00,VWS V14.01,2013-06-08 19:40:00,
2013-06-08 15:41:00,76.5,74.0,29.99,SSW,211,22.0,27.0,92,0.00,,---,0.00,VWS V14.01,2013-06-08 19:41:00,
2013-06-08 15:42:00,76.5,74.0,29.99,SSW,211,20.0,27.0,92,0.00,,---,0.00,VWS V14.01,2013-06-08 19:42:00,
2013-06-08 15:43:00,76.5,74.0,29.99,SSW,207,22.0,27.0,92,0.00,,---,0.00,VWS V14.01,2013-06-08 19:43:00,
2013-06-08 15:44:00,76.5,74.0,29.99,SSW,202,23.0,27.0,92,0.00,,---,0.00,VWS V14.01,2013-06-08 19:44:00,
2013-06-08 15:45:00,76.5,74.0,29.99,SW,214,23.0,28.0,92,0.00,,---,0.00,VWS V14.01,2013-06-08 19:45:00,
2013-06-08 15:46:00,76.5,74.0,29.99,SSW,213,22.0,29.0,92,0.00,,---,0.00,VWS V14.01,2013-06-08 19:46:00,
2013-06-08 15:47:00,76.5,74.0,29.99,SSW,211,23.0,29.0,92,0.00,,---,0.00,VWS V14.01,2013-06-08 19:47:00,
2013-06-08 15:48:00,76.5,74.0,29.99,SSW,211,24.0,29.0,92,0.00,,---,0.00,VWS V14.01,2013-06-08 19:48:00,
2013-06-08 15:49:00,76.6,74.1,29.99,SSW,200,24.0,29.0,92,0.00,,---,0.00,VWS V14.01,2013-06-08 19:49:00,
2013-06-08 15:50:00,76.6,74.1,29.99,SSW,208,19.0,29.0,92,0.00,,---,0.00,VWS V14.01,2013-06-08 19:50:00,
2013-06-08 15:51:00,76.6,74.1,29.99,SSW,207,22.0,23.0,92,0.00,,---,0.00,VWS V14.01,2013-06-08 19:51:00,
2013-06-08 15:52:00,76.6,74.1,29.99,SSW,206,29.0,29.0,92,0.00,,---,0.00,VWS V14.01,2013-06-08 19:52:00,
2013-06-08 15:53:00,76.6,74.1,29.99,SSW,201,22.0,29.0,92,0.00,,---,0.00,VWS V14.01,2013-06-08 19:53:00,
2013-06-08 15:54:00,76.6,74.1,29.99,SSW,209,21.0,29.0,92,0.00,,---,0.00,VWS V14.01,2013-06-08 19:54:00,
2013-06-08 15:55:00,76.6,74.1,29.99,SSW,207,22.0,29.0,92,0.00,,---,0.00,VWS V14.01,2013-06-08 19:55:00,
2013-06-08 15:56:00,76.6,74.1,29.99,SSW,202,24.0,25.0,92,0.00,,---,0.00,VWS V14.01,2013-06-08 19:56:00,
2013-06-08 15:57:00,76.6,74.1,29.99,SSW,208,23.0,27.0,92,0.00,,---,0.00,VWS V14.01,2013-06-08 19:57:00,
2013-06-08 15:58:00,76.5,74.0,29.99,SSW,207,25.0,28.0,92,0.00,,---,0.00,VWS V14.01,2013-06-08 19:58:00,
2013-06-08 15:59:00,76.6,74.1,29.99,SSW,205,23.0,28.0,92,0.00,,---,0.00,VWS V14.01,2013-06-08 19:59:00,
2013-06-08 16:00:00,76.6,74.1,29.99,SSW,206,26.0,28.0,92,0.00,,---,0.00,VWS V14.01,2013-06-08 20:00:00,
2013-06-08 16:01:00,76.6,74.1,29.99,SSW,209,23.0,26.0,92,0.00,,---,0.00,VWS V14.01,2013-06-08 20:01:00,
2013-06-08 16:02:00,76.6,74.1,29.99,SW,215,21.0,26.0,92,0.00,,---,0.00,VWS V14.01,2013-06-08 20:02:00,
2013-06-08 16:03:00,76.7,74.2,29.99,SSW,207,21.0,26.0,92,0.00,,---,0.00,VWS V14.01,2013-06-08 20:03:00,
2013-06-08 16:04:00,76.7,74.2,29.99,SSW,207,21.0,26.0,92,0.00,,---,0.00,VWS V14.01,2013-06-08 20:04:00,
2013-06-08 16:05:00,76.6,74.1,29.99,SSW,204,21.0,26.0,92,0.00,,---,0.00,VWS V14.01,2013-06-08 20:05:00,
2013-06-08 16:06:00,76.6,74.1,29.99,SW,218,23.0,24.0,92,0.00,,---,0.00,VWS V14.01,2013-06-08 20:06:00,
2013-06-08 16:07:00,76.6,74.1,29.99,SSW,207,21.0,24.0,92,0.00,,---,0.00,VWS V14.01,2013-06-08 20:07:00,
2013-06-08 16:08:00,76.7,74.2,29.99,SSW,207,22.0,25.0,92,0.00,,---,0.00,VWS V14.01,2013-06-08 20:08:00,
2013-06-08 16:09:00,76.7,74.2,29.99,SSW,211,23.0,25.0,92,0.00,,---,0.00,VWS V14.01,2013-06-08 20:09:00,
2013-06-08 16:10:00,76.7,74.2,29.99,SSW,213,19.0,25.0,92,0.00,,---,0.00,VWS V14.01,2013-06-08 20:10:00,
2013-06-08 16:11:00,76.6,74.1,29.99,SSW,211,23.0,25.0,92,0.00,,---,0.00,VWS V14.01,2013-06-08 20:11:00,
2013-06-08 16:12:00,76.6,74.1,29.99,SW,214,23.0,25.0,92,0.00,,---,0.00,VWS V14.01,2013-06-08 20:12:00,
2013-06-08 16:13:00,76.6,74.1,29.99,SW,215,24.0,25.0,92,0.00,,---,0.00,VWS V14.01,2013-06-08 20:13:00,
2013-06-08 16:14:00,76.6,74.1,29.99,SW,215,24.0,25.0,92,0.00,,---,0.00,VWS V14.01,2013-06-08 20:14:00,
2013-06-08 16:15:00,76.7,74.2,29.99,SSW,213,22.0,25.0,92,0.00,,---,0.00,VWS V14.01,2013-06-08 20:15:00,
2013-06-08 16:16:00,76.6,74.1,29.99,SSW,213,21.0,24.0,92,0.00,,---,0.00,VWS V14.01,2013-06-08 20:16:00,
2013-06-08 16:17:00,76.6,74.1,29.99,SSW,213,24.0,27.0,92,0.00,,---,0.00,VWS V14.01,2013-06-08 20:17:00,
2013-06-08 16:18:00,76.6,74.1,29.99,SSW,210,21.0,27.0,92,0.00,,---,0.00,VWS V14.01,2013-06-08 20:18:00,
2013-06-08 16:19:00,76.6,74.1,29.99,SSW,213,19.0,27.0,92,0.00,,---,0.00,VWS V14.01,2013-06-08 20:19:00,
2013-06-08 16:20:00,76.7,74.2,29.99,SSW,208,18.0,27.0,92,0.00,,---,0.00,VWS V14.01,2013-06-08 20:20:00,
2013-06-08 16:21:00,76.7,74.2,29.99,SW,217,24.0,24.0,92,0.00,,---,0.00,VWS V14.01,2013-06-08 20:21:00,
2013-06-08 16:22:00,76.6,74.1,29.99,SW,217,20.0,24.0,92,0.00,,---,0.00,VWS V14.01,2013-06-08 20:22:00,
2013-06-08 16:23:00,76.6,74.1,29.99,SW,217,20.0,24.0,92,0.00,,---,0.00,VWS V14.01,2013-06-08 20:23:00,
2013-06-08 16:24:00,76.6,74.1,29.99,SW,217,19.0,26.0,92,0.00,,---,0.00,VWS V14.01,2013-06-08 20:24:00,
2013-06-08 16:25:00,76.6,74.1,29.99,SSW,213,20.0,26.0,92,0.00,,---,0.00,VWS V14.01,2013-06-08 20:25:00,
2013-06-08 16:26:00,76.6,74.1,29.99,SSW,213,24.0,26.0,92,0.00,,---,0.00,VWS V14.01,2013-06-08 20:26:00,
2013-06-08 16:27:00,76.6,74.1,29.99,SW,216,21.0,26.0,92,0.00,,---,0.00,VWS V14.01,2013-06-08 20:27:00,
2013-06-08 16:28:00,76.6,74.1,29.99,SSW,213,20.0,26.0,92,0.00,,---,0.00,VWS V14.01,2013-06-08 20:28:00,
2013-06-08 16:29:00,76.6,74.1,29.99,SW,214,23.0,26.0,92,0.00,,---,0.00,VWS V14.01,2013-06-08 20:29:00,
2013-06-08 16:30:00,76.7,74.2,29.99,SSW,212,21.0,26.0,92,0.00,,---,0.00,VWS V14.01,2013-06-08 20:30:00,
2013-06-08 16:31:00,76.7,74.2,29.99,SSW,209,19.0,25.0,92,0.00,,---,0.00,VWS V14.01,2013-06-08 20:31:00,
2013-06-08 16:32:00,76.7,74.2,29.99,SSW,209,21.0,25.0,92,0.00,,---,0.00,VWS V14.01,2013-06-08 20:32:00,
2013-06-08 16:33:00,76.7,74.2,29.99,SW,214,22.0,25.0,92,0.00,,---,0.00,VWS V14.01,2013-06-08 20:33:00,
2013-06-08 16:34:00,76.7,74.2,29.99,SSW,210,23.0,25.0,92,0.00,,---,0.00,VWS V14.01,2013-06-08 20:34:00,
2013-06-08 16:35:00,76.7,74.2,29.99,SW,215,22.0,25.0,92,0.00,,---,0.00,VWS V14.01,2013-06-08 20:35:00,
2013-06-08 16:36:00,76.7,74.2,29.99,SSW,207,21.0,25.0,92,0.00,,---,0.00,VWS V14.01,2013-06-08 20:36:00,
2013-06-08 16:37:00,76.7,74.2,29.99,SW,217,21.0,25.0,92,0.00,,---,0.00,VWS V14.01,2013-06-08 20:37:00,
2013-06-08 16:38:00,76.7,74.2,29.99,SSW,212,20.0,25.0,92,0.00,,---,0.00,VWS V14.01,2013-06-08 20:38:00,
2013-06-08 16:39:00,76.7,74.2,29.99,SSW,213,21.0,25.0,92,0.00,,---,0.00,VWS V14.01,2013-06-08 20:39:00,
2013-06-08 16:40:00,76.6,74.1,29.99,SSW,207,21.0,25.0,92,0.00,,---,0.00,VWS V14.01,2013-06-08 20:40:00,
2013-06-08 16:41:00,76.6,74.1,29.99,SSW,212,22.0,26.0,92,0.00,,---,0.00,VWS V14.01,2013-06-08 20:41:00,
2013-06-08 16:42:00,76.6,74.1,29.99,SW,214,23.0,26.0,92,0.00,,---,0.00,VWS V14.01,2013-06-08 20:42:00,
2013-06-08 16:43:00,76.6,74.1,29.99,SSW,209,21.0,26.0,92,0.00,,---,0.00,VWS V14.01,2013-06-08 20:43:00,
2013-06-08 16:44:00,76.7,74.2,29.99,SSW,211,22.0,26.0,92,0.00,,---,0.00,VWS V14.01,2013-06-08 20:44:00,
2013-06-08 16:45:00,76.7,74.2,29.99,SSW,209,22.0,26.0,92,0.00,,---,0.00,VWS V14.01,2013-06-08 20:45:00,
2013-06-08 16:46:00,76.7,74.2,29.99,SSW,212,17.0,22.0,92,0.00,,---,0.00,VWS V14.01,2013-06-08 20:46:00,
2013-06-08 16:47:00,76.7,74.2,29.99,SSW,211,20.0,23.0,92,0.00,,---,0.00,VWS V14.01,2013-06-08 20:47:00,
2013-06-08 16:48:00,76.7,74.2,29.99,SSW,213,19.0,23.0,92,0.00,,---,0.00,VWS V14.01,2013-06-08 20:48:00,
2013-06-08 16:49:00,76.7,74.2,29.99,SSW,210,19.0,23.0,92,0.00,,---,0.00,VWS V14.01,2013-06-08 20:49:00,
2013-06-08 16:50:00,76.7,74.2,29.99,SSW,212,22.0,23.0,92,0.00,,---,0.00,VWS V14.01,2013-06-08 20:50:00,
2013-06-08 16:51:00,76.6,74.1,29.99,SW,215,24.0,25.0,92,0.00,,---,0.00,VWS V14.01,2013-06-08 20:51:00,
2013-06-08 16:52:00,76.6,74.1,29.99,SW,217,23.0,25.0,92,0.00,,---,0.00,VWS V14.01,2013-06-08 20:52:00,
2013-06-08 16:53:00,76.6,74.1,29.99,SSW,211,23.0,25.0,92,0.00,,---,0.00,VWS V14.01,2013-06-08 20:53:00,
2013-06-08 16:54:00,76.6,74.1,29.99,SSW,213,23.0,25.0,92,0.00,,---,0.00,VWS V14.01,2013-06-08 20:54:00,
2013-06-08 16:55:00,76.6,74.1,29.99,SSW,209,20.0,25.0,92,0.00,,---,0.00,VWS V14.01,2013-06-08 20:55:00,
2013-06-08 16:56:00,76.6,74.1,29.99,SSW,209,20.0,22.0,92,0.00,,---,0.00,VWS V14.01,2013-06-08 20:56:00,
2013-06-08 16:57:00,76.7,74.2,29.99,SSW,213,19.0,22.0,92,0.00,,---,0.00,VWS V14.01,2013-06-08 20:57:00,
2013-06-08 16:58:00,76.7,74.2,29.99,SW,215,24.0,24.0,92,0.00,,---,0.00,VWS V14.01,2013-06-08 20:58:00,
2013-06-08 16:59:00,76.6,74.1,29.99,SW,219,21.0,24.0,92,0.00,,---,0.00,VWS V14.01,2013-06-08 20:59:00,
2013-06-08 17:00:00,76.7,74.2,30.00,SW,221,21.0,24.0,92,0.00,,---,0.00,VWS V14.01,2013-06-08 21:00:00,
2013-06-08 17:01:00,76.7,74.2,30.00,SSW,211,19.0,23.0,92,0.00,,---,0.00,VWS V14.01,2013-06-08 21:01:00,
2013-06-08 17:02:00,76.6,74.1,30.00,SW,214,20.0,23.0,92,0.00,,---,0.00,VWS V14.01,2013-06-08 21:02:00,
2013-06-08 17:03:00,76.6,74.1,30.00,SSW,213,21.0,23.0,92,0.00,,---,0.00,VWS V14.01,2013-06-08 21:03:00,
2013-06-08 17:04:00,76.7,74.2,30.00,SSW,211,21.0,24.0,92,0.00,,---,0.00,VWS V14.01,2013-06-08 21:04:00,
2013-06-08 17:05:00,76.7,74.2,30.00,SSW,207,23.0,24.0,92,0.00,,---,0.00,VWS V14.01,2013-06-08 21:05:00,
2013-06-08 17:06:00,76.6,74.1,30.00,SSW,212,20.0,23.0,92,0.00,,---,0.00,VWS V14.01,2013-06-08 21:06:00,
2013-06-08 17:07:00,76.6,74.1,30.00,SSW,205,21.0,23.0,92,0.00,,---,0.00,VWS V14.01,2013-06-08 21:07:00,
2013-06-08 17:08:00,76.6,74.1,30.00,SW,215,20.0,24.0,92,0.00,,---,0.00,VWS V14.01,2013-06-08 21:08:00,
2013-06-08 17:09:00,76.6,74.1,30.00,SW,216,19.0,24.0,92,0.00,,---,0.00,VWS V14.01,2013-06-08 21:09:00,
2013-06-08 17:10:00,76.6,74.1,30.00,SW,215,21.0,24.0,92,0.00,,---,0.00,VWS V14.01,2013-06-08 21:10:00,
2013-06-08 17:11:00,76.6,74.1,30.00,SW,215,20.0,23.0,92,0.00,,---,0.00,VWS V14.01,2013-06-08 21:11:00,
2013-06-08 17:12:00,76.6,74.1,30.00,SW,214,23.0,24.0,92,0.00,,---,0.00,VWS V14.01,2013-06-08 21:12:00,
2013-06-08 17:13:00,76.6,74.4,30.00,SW,216,23.0,24.0,93,0.00,,---,0.00,VWS V14.01,2013-06-08 21:13:00,
2013-06-08 17:14:00,76.6,74.1,30.00,SW,216,22.0,24.0,92,0.00,,---,0.00,VWS V14.01,2013-06-08 21:14:00,
2013-06-08 17:15:00,76.6,74.1,29.99,SSW,213,20.0,24.0,92,0.00,,---,0.00,VWS V14.01,2013-06-08 21:15:00,
2013-06-08 17:16:00,76.6,74.1,29.99,SW,215,23.0,24.0,92,0.00,,---,0.00,VWS V14.01,2013-06-08 21:16:00,
2013-06-08 17:17:00,76.6,74.1,29.99,SSW,213,23.0,24.0,92,0.00,,---,0.00,VWS V14.01,2013-06-08 21:17:00,
2013-06-08 17:18:00,76.5,74.0,29.99,SW,216,19.0,24.0,92,0.00,,---,0.00,VWS V14.01,2013-06-08 21:18:00,
2013-06-08 17:19:00,76.5,74.0,29.99,SSW,213,23.0,24.0,92,0.00,,---,0.00,VWS V14.01,2013-06-08 21:19:00,
2013-06-08 17:20:00,76.5,74.0,29.99,SW,215,21.0,24.0,92,0.00,,---,0.00,VWS V14.01,2013-06-08 21:20:00,
2013-06-08 17:21:00,76.5,74.0,29.99,SW,215,22.0,24.0,92,0.00,,---,0.00,VWS V14.01,2013-06-08 21:21:00,
2013-06-08 17:22:00,76.5,74.0,29.99,SSW,213,20.0,24.0,92,0.00,,---,0.00,VWS V14.01,2013-06-08 21:22:00,
2013-06-08 17:23:00,76.5,74.3,29.99,SW,218,22.0,24.0,93,0.00,,---,0.00,VWS V14.01,2013-06-08 21:23:00,
2013-06-08 17:24:00,76.5,74.0,29.99,SW,215,21.0,24.0,92,0.00,,---,0.00,VWS V14.01,2013-06-08 21:24:00,
2013-06-08 17:25:00,76.5,74.3,29.99,SW,219,21.0,24.0,93,0.00,,---,0.00,VWS V14.01,2013-06-08 21:25:00,
2013-06-08 17:26:00,76.5,74.0,29.99,SW,216,20.0,24.0,92,0.00,,---,0.00,VWS V14.01,2013-06-08 21:26:00,
2013-06-08 17:27:00,76.5,74.3,29.99,SW,215,21.0,24.0,93,0.00,,---,0.00,VWS V14.01,2013-06-08 21:27:00,
2013-06-08 17:28:00,76.5,74.3,29.99,SSW,213,19.0,24.0,93,0.00,,---,0.00,VWS V14.01,2013-06-08 21:28:00,
2013-06-08 17:29:00,76.5,74.0,29.99,SSW,212,19.0,24.0,92,0.00,,---,0.00,VWS V14.01,2013-06-08 21:29:00,
2013-06-08 17:30:00,76.5,74.0,30.00,SW,215,19.0,24.0,92,0.00,,---,0.00,VWS V14.01,2013-06-08 21:30:00,
2013-06-08 17:31:00,76.5,74.0,30.00,SSW,211,20.0,23.0,92,0.00,,---,0.00,VWS V14.01,2013-06-08 21:31:00,
2013-06-08 17:32:00,76.5,74.3,30.00,SSW,211,18.0,23.0,93,0.00,,---,0.00,VWS V14.01,2013-06-08 21:32:00,
2013-06-08 17:33:00,76.6,74.4,30.00,SW,215,21.0,23.0,93,0.00,,---,0.00,VWS V14.01,2013-06-08 21:33:00,
2013-06-08 17:34:00,76.5,74.0,30.00,SSW,211,24.0,24.0,92,0.00,,---,0.00,VWS V14.01,2013-06-08 21:34:00,
2013-06-08 17:35:00,76.5,74.3,30.00,SW,214,22.0,24.0,93,0.00,,---,0.00,VWS V14.01,2013-06-08 21:35:00,
2013-06-08 17:36:00,76.5,74.3,30.00,SW,216,18.0,23.0,93,0.00,,---,0.00,VWS V14.01,2013-06-08 21:36:00,
2013-06-08 17:37:00,76.5,74.3,30.00,SW,216,22.0,24.0,93,0.00,,---,0.00,VWS V14.01,2013-06-08 21:37:00,
2013-06-08 17:38:00,76.5,74.3,30.00,SSW,211,18.0,24.0,93,0.00,,---,0.00,VWS V14.01,2013-06-08 21:38:00,
2013-06-08 17:39:00,76.5,74.3,30.00,SSW,209,23.0,24.0,93,0.00,,---,0.00,VWS V14.01,2013-06-08 21:39:00,
2013-06-08 17:40:00,76.4,74.2,30.00,SSW,211,22.0,24.0,93,0.00,,---,0.00,VWS V14.01,2013-06-08 21:40:00,
2013-06-08 17:41:00,76.4,74.2,30.00,SSW,212,20.0,25.0,93,0.00,,---,0.00,VWS V14.01,2013-06-08 21:41:00,
2013-06-08 17:42:00,76.4,74.2,30.00,SW,215,20.0,25.0,93,0.00,,---,0.00,VWS V14.01,2013-06-08 21:42:00,
2013-06-08 17:43:00,76.4,74.2,30.00,SW,220,20.0,25.0,93,0.00,,---,0.00,VWS V14.01,2013-06-08 21:43:00,
2013-06-08 17:44:00,76.5,74.3,30.00,SSW,213,19.0,25.0,93,0.00,,---,0.00,VWS V14.01,2013-06-08 21:44:00,
2013-06-08 17:45:00,76.5,74.3,30.00,SW,215,17.0,25.0,93,0.00,,---,0.00,VWS V14.01,2013-06-08 21:45:00,
2013-06-08 17:46:00,76.5,74.3,30.00,SSW,212,22.0,24.0,93,0.00,,---,0.00,VWS V14.01,2013-06-08 21:46:00,
2013-06-08 17:47:00,76.4,74.2,30.00,SW,214,20.0,24.0,93,0.00,,---,0.00,VWS V14.01,2013-06-08 21:47:00,
2013-06-08 17:48:00,76.4,74.2,30.00,SW,217,20.0,24.0,93,0.00,,---,0.00,VWS V14.01,2013-06-08 21:48:00,
2013-06-08 17:49:00,76.4,74.2,30.00,SW,217,24.0,24.0,93,0.00,,---,0.00,VWS V14.01,2013-06-08 21:49:00,
2013-06-08 17:50:00,76.4,74.2,30.00,SW,215,22.0,24.0,93,0.00,,---,0.00,VWS V14.01,2013-06-08 21:50:00,
2013-06-08 17:51:00,76.4,74.2,30.00,SW,215,21.0,23.0,93,0.00,,---,0.00,VWS V14.01,2013-06-08 21:51:00,
2013-06-08 17:52:00,76.4,74.2,30.00,SW,220,18.0,23.0,93,0.00,,---,0.00,VWS V14.01,2013-06-08 21:52:00,
2013-06-08 17:53:00,76.4,74.2,30.00,SSW,213,20.0,24.0,93,0.00,,---,0.00,VWS V14.01,2013-06-08 21:53:00,
2013-06-08 17:54:00,76.4,74.2,30.00,SSW,213,21.0,24.0,93,0.00,,---,0.00,VWS V14.01,2013-06-08 21:54:00,
2013-06-08 17:55:00,76.4,74.2,30.00,SW,215,18.0,24.0,93,0.00,,---,0.00,VWS V14.01,2013-06-08 21:55:00,
2013-06-08 17:56:00,76.4,74.2,30.00,SW,219,24.0,24.0,93,0.00,,---,0.00,VWS V14.01,2013-06-08 21:56:00,
2013-06-08 17:57:00,76.4,74.2,30.00,SW,218,19.0,24.0,93,0.00,,---,0.00,VWS V14.01,2013-06-08 21:57:00,
2013-06-08 17:58:00,76.4,74.2,30.00,SW,219,17.0,24.0,93,0.00,,---,0.00,VWS V14.01,2013-06-08 21:58:00,
2013-06-08 17:59:00,76.5,74.3,30.00,SW,219,19.0,24.0,93,0.00,,---,0.00,VWS V14.01,2013-06-08 21:59:00,
2013-06-08 18:00:00,76.4,74.2,30.00,SW,220,17.0,24.0,93,0.00,,---,0.00,VWS V14.01,2013-06-08 22:00:00,
2013-06-08 18:01:00,76.4,74.2,30.00,SW,216,20.0,25.0,93,0.00,,---,0.00,VWS V14.01,2013-06-08 22:01:00,
2013-06-08 18:02:00,76.4,74.2,30.00,SW,217,21.0,25.0,93,0.00,,---,0.00,VWS V14.01,2013-06-08 22:02:00,
2013-06-08 18:03:00,76.4,74.2,30.00,SW,219,23.0,25.0,93,0.00,,---,0.00,VWS V14.01,2013-06-08 22:03:00,
2013-06-08 18:04:00,76.4,74.2,30.00,SW,215,20.0,25.0,93,0.00,,---,0.00,VWS V14.01,2013-06-08 22:04:00,
2013-06-08 18:05:00,76.4,74.2,30.00,SW,215,24.0,25.0,93,0.00,,---,0.00,VWS V14.01,2013-06-08 22:05:00,
2013-06-08 18:06:00,76.4,74.2,30.00,SW,218,21.0,23.0,93,0.00,,---,0.00,VWS V14.01,2013-06-08 22:06:00,
2013-06-08 18:07:00,76.4,74.2,30.00,SW,219,20.0,25.0,93,0.00,,---,0.00,VWS V14.01,2013-06-08 22:07:00,
2013-06-08 18:08:00,76.4,74.2,30.00,SW,215,24.0,25.0,93,0.00,,---,0.00,VWS V14.01,2013-06-08 22:08:00,
2013-06-08 18:09:00,76.4,74.2,30.00,SW,218,21.0,25.0,93,0.00,,---,0.00,VWS V14.01,2013-06-08 22:09:00,
2013-06-08 18:10:00,76.4,74.2,30.00,SSW,213,22.0,25.0,93,0.00,,---,0.00,VWS V14.01,2013-06-08 22:10:00,
2013-06-08 18:11:00,76.4,74.2,30.00,SW,218,22.0,24.0,93,0.00,,---,0.00,VWS V14.01,2013-06-08 22:11:00,
2013-06-08 18:12:00,76.4,74.2,30.00,SW,215,21.0,24.0,93,0.00,,---,0.00,VWS V14.01,2013-06-08 22:12:00,
2013-06-08 18:13:00,76.4,74.2,30.00,SW,222,19.0,25.0,93,0.00,,---,0.00,VWS V14.01,2013-06-08 22:13:00,
2013-06-08 18:14:00,76.4,74.2,30.00,SW,216,21.0,25.0,93,0.00,,---,0.00,VWS V14.01,2013-06-08 22:14:00,
2013-06-08 18:15:00,76.3,74.1,30.01,SW,217,18.0,25.0,93,0.00,,---,0.00,VWS V14.01,2013-06-08 22:15:00,
2013-06-08 18:16:00,76.4,74.2,30.01,SW,216,17.0,22.0,93,0.00,,---,0.00,VWS V14.01,2013-06-08 22:16:00,
2013-06-08 18:17:00,76.5,74.3,30.01,SSW,212,21.0,22.0,93,0.00,,---,0.00,VWS V14.01,2013-06-08 22:17:00,
2013-06-08 18:18:00,76.4,74.2,30.01,SW,215,23.0,25.0,93,0.00,,---,0.00,VWS V14.01,2013-06-08 22:18:00,
2013-06-08 18:19:00,76.3,74.1,30.01,SW,221,20.0,25.0,93,0.00,,---,0.00,VWS V14.01,2013-06-08 22:19:00,
2013-06-08 18:20:00,76.4,74.2,30.01,SW,215,22.0,25.0,93,0.00,,---,0.00,VWS V14.01,2013-06-08 22:20:00,
2013-06-08 18:21:00,76.3,74.1,30.01,SSW,212,18.0,24.0,93,0.00,,---,0.00,VWS V14.01,2013-06-08 22:21:00,
2013-06-08 18:22:00,76.4,74.2,30.01,SW,214,21.0,24.0,93,0.00,,---,0.00,VWS V14.01,2013-06-08 22:22:00,
2013-06-08 18:23:00,76.4,74.2,30.01,SW,217,22.0,24.0,93,0.00,,---,0.00,VWS V14.01,2013-06-08 22:23:00,
2013-06-08 18:24:00,76.4,74.2,30.01,SW,217,23.0,24.0,93,0.00,,---,0.00,VWS V14.01,2013-06-08 22:24:00,
2013-06-08 18:25:00,76.3,74.1,30.01,SW,219,20.0,24.0,93,0.00,,---,0.00,VWS V14.01,2013-06-08 22:25:00,
2013-06-08 18:26:00,76.3,74.1,30.01,SSW,213,24.0,24.0,93,0.00,,---,0.00,VWS V14.01,2013-06-08 22:26:00,
2013-06-08 18:27:00,76.3,74.1,30.01,SW,215,21.0,24.0,93,0.00,,---,0.00,VWS V14.01,2013-06-08 22:27:00,
2013-06-08 18:28:00,76.3,74.1,30.01,SW,216,20.0,25.0,93,0.00,,---,0.00,VWS V14.01,2013-06-08 22:28:00,
2013-06-08 18:29:00,76.3,74.1,30.01,SW,218,21.0,25.0,93,0.00,,---,0.00,VWS V14.01,2013-06-08 22:29:00,
2013-06-08 18:30:00,76.3,74.1,30.01,SW,219,22.0,25.0,93,0.00,,---,0.00,VWS V14.01,2013-06-08 22:30:00,
2013-06-08 18:31:00,76.3,74.1,30.01,SW,215,19.0,26.0,93,0.00,,---,0.00,VWS V14.01,2013-06-08 22:31:00,
2013-06-08 18:32:00,76.3,74.1,30.01,SW,221,22.0,26.0,93,0.00,,---,0.00,VWS V14.01,2013-06-08 22:32:00,
2013-06-08 18:33:00,76.3,74.1,30.01,SW,221,20.0,26.0,93,0.00,,---,0.00,VWS V14.01,2013-06-08 22:33:00,
2013-06-08 18:34:00,76.3,74.1,30.01,SW,221,23.0,26.0,93,0.00,,---,0.00,VWS V14.01,2013-06-08 22:34:00,
2013-06-08 18:35:00,76.3,74.1,30.01,SW,216,22.0,26.0,93,0.00,,---,0.00,VWS V14.01,2013-06-08 22:35:00,
2013-06-08 18:36:00,76.3,74.1,30.01,SSW,208,20.0,23.0,93,0.00,,---,0.00,VWS V14.01,2013-06-08 22:36:00,
2013-06-08 18:37:00,76.4,74.2,30.01,SW,217,22.0,24.0,93,0.00,,---,0.00,VWS V14.01,2013-06-08 22:37:00,
2013-06-08 18:38:00,76.3,74.1,30.01,SW,215,22.0,25.0,93,0.00,,---,0.00,VWS V14.01,2013-06-08 22:38:00,
2013-06-08 18:39:00,76.3,74.1,30.01,SW,215,17.0,25.0,93,0.00,,---,0.00,VWS V14.01,2013-06-08 22:39:00,
2013-06-08 18:40:00,76.3,74.1,30.01,SW,215,21.0,25.0,93,0.00,,---,0.00,VWS V14.01,2013-06-08 22:40:00,
2013-06-08 18:41:00,76.3,74.1,30.01,SSW,213,19.0,24.0,93,0.00,,---,0.00,VWS V14.01,2013-06-08 22:41:00,
2013-06-08 18:42:00,76.3,74.1,30.01,SSW,213,20.0,24.0,93,0.00,,---,0.00,VWS V14.01,2013-06-08 22:42:00,
2013-06-08 18:43:00,76.3,74.1,30.01,SW,217,20.0,24.0,93,0.00,,---,0.00,VWS V14.01,2013-06-08 22:43:00,
2013-06-08 18:44:00,76.3,74.1,30.01,SW,217,24.0,25.0,93,0.00,,---,0.00,VWS V14.01,2013-06-08 22:44:00,
2013-06-08 18:45:00,76.3,74.1,30.02,SW,217,21.0,25.0,93,0.00,,---,0.00,VWS V14.01,2013-06-08 22:45:00,
2013-06-08 18:46:00,76.3,74.1,30.02,SW,214,23.0,23.0,93,0.00,,---,0.00,VWS V14.01,2013-06-08 22:46:00,
2013-06-08 18:47:00,76.3,74.1,30.02,SSW,213,25.0,25.0,93,0.00,,---,0.00,VWS V14.01,2013-06-08 22:47:00,
2013-06-08 18:48:00,76.3,74.1,30.02,SW,215,23.0,25.0,93,0.00,,---,0.00,VWS V14.01,2013-06-08 22:48:00,
2013-06-08 18:49:00,76.3,74.1,30.02,SW,219,19.0,25.0,93,0.00,,---,0.00,VWS V14.01,2013-06-08 22:49:00,
2013-06-08 18:50:00,76.4,74.2,30.02,SW,215,18.0,25.0,93,0.00,,---,0.00,VWS V14.01,2013-06-08 22:50:00,
2013-06-08 18:51:00,76.4,74.2,30.02,SW,215,23.0,24.0,93,0.00,,---,0.00,VWS V14.01,2013-06-08 22:51:00,
2013-06-08 18:52:00,76.4,74.2,30.02,SSW,212,23.0,24.0,93,0.00,,---,0.00,VWS V14.01,2013-06-08 22:52:00,
2013-06-08 18:53:00,76.3,74.1,30.02,SW,217,23.0,25.0,93,0.00,,---,0.00,VWS V14.01,2013-06-08 22:53:00,
2013-06-08 18:54:00,76.3,74.1,30.02,SW,220,21.0,25.0,93,0.00,,---,0.00,VWS V14.01,2013-06-08 22:54:00,
2013-06-08 18:55:00,76.4,74.2,30.02,SSW,211,21.0,25.0,93,0.00,,---,0.00,VWS V14.01,2013-06-08 22:55:00,
2013-06-08 18:56:00,76.4,74.2,30.02,SW,220,19.0,26.0,93,0.00,,---,0.00,VWS V14.01,2013-06-08 22:56:00,
2013-06-08 18:57:00,76.3,74.1,30.02,SW,219,20.0,26.0,93,0.00,,---,0.00,VWS V14.01,2013-06-08 22:57:00,
2013-06-08 18:58:00,76.4,74.2,30.02,SW,219,20.0,26.0,93,0.00,,---,0.00,VWS V14.01,2013-06-08 22:58:00,
2013-06-08 18:59:00,76.3,74.1,30.02,SSW,213,21.0,26.0,93,0.00,,---,0.00,VWS V14.01,2013-06-08 22:59:00,
2013-06-08 19:00:00,76.3,74.1,30.02,SW,223,21.0,26.0,93,0.00,,---,0.00,VWS V14.01,2013-06-08 23:00:00,
2013-06-08 19:01:00,76.3,74.1,30.02,SW,223,21.0,24.0,93,0.00,,---,0.00,VWS V14.01,2013-06-08 23:01:00,
2013-06-08 19:02:00,76.3,74.1,30.02,SW,225,23.0,24.0,93,0.00,,---,0.00,VWS V14.01,2013-06-08 23:02:00,
2013-06-08 19:03:00,76.3,74.1,30.02,SW,221,20.0,24.0,93,0.00,,---,0.00,VWS V14.01,2013-06-08 23:03:00,
2013-06-08 19:04:00,76.3,74.1,30.02,SW,225,17.0,24.0,93,0.00,,---,0.00,VWS V14.01,2013-06-08 23:04:00,
2013-06-08 19:05:00,76.3,74.1,30.02,SW,226,15.0,24.0,93,0.00,,---,0.00,VWS V14.01,2013-06-08 23:05:00,
2013-06-08 19:06:00,76.3,74.1,30.02,SW,224,21.0,21.0,93,0.00,,---,0.00,VWS V14.01,2013-06-08 23:06:00,
2013-06-08 19:07:00,76.3,74.1,30.02,SW,224,22.0,22.0,93,0.00,,---,0.00,VWS V14.01,2013-06-08 23:07:00,
2013-06-08 19:08:00,76.3,74.1,30.02,SW,227,18.0,22.0,93,0.00,,---,0.00,VWS V14.01,2013-06-08 23:08:00,
2013-06-08 19:09:00,76.3,74.1,30.02,SW,223,18.0,22.0,93,0.00,,---,0.00,VWS V14.01,2013-06-08 23:09:00,
2013-06-08 19:10:00,76.4,74.2,30.02,SW,228,21.0,24.0,93,0.00,,---,0.00,VWS V14.01,2013-06-08 23:10:00,
2013-06-08 19:11:00,76.3,74.1,30.02,SW,229,19.0,23.0,93,0.00,,---,0.00,VWS V14.01,2013-06-08 23:11:00,
2013-06-08 19:12:00,76.3,74.1,30.02,SW,225,19.0,23.0,93,0.00,,---,0.00,VWS V14.01,2013-06-08 23:12:00,
2013-06-08 19:13:00,76.3,74.1,30.02,SW,225,19.0,23.0,93,0.00,,---,0.00,VWS V14.01,2013-06-08 23:13:00,
2013-06-08 19:14:00,76.3,74.1,30.02,SW,225,22.0,23.0,93,0.00,,---,0.00,VWS V14.01,2013-06-08 23:14:00,
2013-06-08 19:15:00,76.3,74.1,30.03,SW,222,20.0,23.0,93,0.00,,---,0.00,VWS V14.01,2013-06-08 23:15:00,
2013-06-08 19:16:00,76.2,74.0,30.03,SW,222,23.0,24.0,93,0.00,,---,0.00,VWS V14.01,2013-06-08 23:16:00,
2013-06-08 19:17:00,76.3,74.1,30.03,SW,224,22.0,24.0,93,0.00,,---,0.00,VWS V14.01,2013-06-08 23:17:00,
2013-06-08 19:18:00,76.3,74.1,30.03,SW,223,19.0,24.0,93,0.00,,---,0.00,VWS V14.01,2013-06-08 23:18:00,
2013-06-08 19:19:00,76.3,74.1,30.03,SW,227,23.0,25.0,93,0.00,,---,0.00,VWS V14.01,2013-06-08 23:19:00,
2013-06-08 19:20:00,76.3,74.1,30.03,SW,223,22.0,25.0,93,0.00,,---,0.00,VWS V14.01,2013-06-08 23:20:00,
2013-06-08 19:21:00,76.3,74.1,30.03,SW,223,21.0,24.0,93,0.00,,---,0.00,VWS V14.01,2013-06-08 23:21:00,
2013-06-08 19:22:00,76.3,74.1,30.03,SW,225,19.0,25.0,93,0.00,,---,0.00,VWS V14.01,2013-06-08 23:22:00,
2013-06-08 19:23:00,76.3,74.1,30.03,SW,225,22.0,25.0,93,0.00,,---,0.00,VWS V14.01,2013-06-08 23:23:00,
2013-06-08 19:24:00,76.3,74.1,30.03,SW,223,18.0,25.0,93,0.00,,---,0.00,VWS V14.01,2013-06-08 23:24:00,
2013-06-08 19:25:00,76.4,74.2,30.03,SW,217,22.0,25.0,93,0.00,,---,0.00,VWS V14.01,2013-06-08 23:25:00,
2013-06-08 19:26:00,76.3,74.1,30.03,SW,221,19.0,24.0,93,0.00,,---,0.00,VWS V14.01,2013-06-08 23:26:00,
2013-06-08 19:27:00,76.3,74.1,30.03,SW,225,19.0,24.0,93,0.00,,---,0.00,VWS V14.01,2013-06-08 23:27:00,
2013-06-08 19:28:00,76.2,74.0,30.03,SW,222,20.0,24.0,93,0.00,,---,0.00,VWS V14.01,2013-06-08 23:28:00,
2013-06-08 19:29:00,76.3,74.1,30.03,SW,223,19.0,24.0,93,0.00,,---,0.00,VWS V14.01,2013-06-08 23:29:00,
2013-06-08 19:30:00,76.3,74.1,30.04,SW,225,21.0,24.0,93,0.00,,---,0.00,VWS V14.01,2013-06-08 23:30:00,
2013-06-08 19:31:00,76.3,74.1,30.04,SW,221,20.0,23.0,93,0.00,,---,0.00,VWS V14.01,2013-06-08 23:31:00,
2013-06-08 19:32:00,76.3,74.1,30.04,SW,222,20.0,23.0,93,0.00,,---,0.00,VWS V14.01,2013-06-08 23:32:00,
2013-06-08 19:33:00,76.2,74.0,30.04,SW,223,18.0,23.0,93,0.00,,---,0.00,VWS V14.01,2013-06-08 23:33:00,
2013-06-08 19:34:00,76.3,74.1,30.04,SW,228,21.0,23.0,93,0.00,,---,0.00,VWS V14.01,2013-06-08 23:34:00,
2013-06-08 19:35:00,76.3,74.1,30.04,SW,223,18.0,24.0,93,0.00,,---,0.00,VWS V14.01,2013-06-08 23:35:00,
2013-06-08 19:36:00,76.3,74.1,30.04,SW,222,19.0,20.0,93,0.00,,---,0.00,VWS V14.01,2013-06-08 23:36:00,
2013-06-08 19:37:00,76.3,74.1,30.04,SW,221,21.0,22.0,93,0.00,,---,0.00,VWS V14.01,2013-06-08 23:37:00,
2013-06-08 19:38:00,76.2,74.0,30.04,SW,217,20.0,22.0,93,0.00,,---,0.00,VWS V14.01,2013-06-08 23:38:00,
2013-06-08 19:39:00,76.2,74.0,30.04,SW,224,19.0,22.0,93,0.00,,---,0.00,VWS V14.01,2013-06-08 23:39:00,
2013-06-08 19:40:00,76.3,74.1,30.04,SW,218,16.0,22.0,93,0.00,,---,0.00,VWS V14.01,2013-06-08 23:40:00,
2013-06-08 19:41:00,76.3,74.1,30.04,SW,221,17.0,20.0,93,0.00,,---,0.00,VWS V14.01,2013-06-08 23:41:00,
2013-06-08 19:42:00,76.2,74.0,30.04,SW,220,15.0,23.0,93,0.00,,---,0.00,VWS V14.01,2013-06-08 23:42:00,
2013-06-08 19:43:00,76.2,74.0,30.04,SW,224,15.0,23.0,93,0.00,,---,0.00,VWS V14.01,2013-06-08 23:43:00,
2013-06-08 19:44:00,76.3,74.1,30.04,SW,221,15.0,23.0,93,0.00,,---,0.00,VWS V14.01,2013-06-08 23:44:00,
2013-06-08 19:45:00,76.3,74.1,30.05,SW,224,17.0,23.0,93,0.00,,---,0.00,VWS V14.01,2013-06-08 23:45:00,
2013-06-08 19:46:00,76.2,74.0,30.05,SW,225,18.0,20.0,93,0.00,,---,0.00,VWS V14.01,2013-06-08 23:46:00,
2013-06-08 19:47:00,76.2,74.0,30.05,SW,219,16.0,20.0,93,0.00,,---,0.00,VWS V14.01,2013-06-08 23:47:00,
2013-06-08 19:48:00,76.2,74.0,30.05,SW,225,19.0,20.0,93,0.00,,---,0.00,VWS V14.01,2013-06-08 23:48:00,
2013-06-08 19:49:00,76.2,74.0,30.05,SW,221,20.0,21.0,93,0.00,,---,0.00,VWS V14.01,2013-06-08 23:49:00,
2013-06-08 19:50:00,76.2,74.0,30.05,SW,223,18.0,21.0,93,0.00,,---,0.00,VWS V14.01,2013-06-08 23:50:00,
2013-06-08 19:51:00,76.2,74.0,30.05,SW,224,18.0,18.0,93,0.00,,---,0.00,VWS V14.01,2013-06-08 23:51:00,
2013-06-08 19:52:00,76.2,74.0,30.05,SW,224,17.0,19.0,93,0.00,,---,0.00,VWS V14.01,2013-06-08 23:52:00,
2013-06-08 19:53:00,76.2,74.0,30.05,SW,229,18.0,19.0,93,0.00,,---,0.00,VWS V14.01,2013-06-08 23:53:00,
2013-06-08 19:54:00,76.2,74.0,30.05,SW,225,17.0,20.0,93,0.00,,---,0.00,VWS V14.01,2013-06-08 23:54:00,
2013-06-08 19:55:00,76.2,74.0,30.05,SW,228,18.0,20.0,93,0.00,,---,0.00,VWS V14.01,2013-06-08 23:55:00,
2013-06-08 19:56:00,76.2,74.0,30.05,SW,227,18.0,20.0,93,0.00,,---,0.00,VWS V14.01,2013-06-08 23:56:00,
2013-06-08 19:57:00,76.2,74.0,30.05,SW,224,17.0,20.0,93,0.00,,---,0.00,VWS V14.01,2013-06-08 23:57:00,
2013-06-08 19:58:00,76.2,74.0,30.05,SW,224,17.0,20.0,93,0.00,,---,0.00,VWS V14.01,2013-06-08 23:58:00,
2013-06-08 19:59:00,76.1,73.9,30.05,SW,225,19.0,21.0,93,0.00,,---,0.00,VWS V14.01,2013-06-08 23:59:00,
2013-06-08 20:00:00,76.1,73.9,30.05,SW,225,16.0,21.0,93,0.00,,---,0.00,VWS V14.01,2013-06-09 00:00:00,
2013-06-08 20:01:00,76.1,73.9,30.05,SW,223,17.0,18.0,93,0.00,,---,0.00,VWS V14.01,2013-06-09 00:01:00,
2013-06-08 20:02:00,76.2,74.0,30.05,SW,225,15.0,19.0,93,0.00,,---,0.00,VWS V14.01,2013-06-09 00:02:00,
2013-06-08 20:03:00,76.2,74.0,30.05,SW,220,19.0,21.0,93,0.00,,---,0.00,VWS V14.01,2013-06-09 00:03:00,
2013-06-08 20:04:00,76.2,74.0,30.05,SW,225,19.0,21.0,93,0.00,,---,0.00,VWS V14.01,2013-06-09 00:04:00,
2013-06-08 20:05:00,76.2,74.0,30.05,SW,227,14.0,21.0,93,0.00,,---,0.00,VWS V14.01,2013-06-09 00:05:00,
2013-06-08 20:06:00,76.2,74.0,30.05,SW,225,20.0,22.0,93,0.00,,---,0.00,VWS V14.01,2013-06-09 00:06:00,
2013-06-08 20:07:00,76.2,74.0,30.05,SW,221,22.0,22.0,93,0.00,,---,0.00,VWS V14.01,2013-06-09 00:07:00,
2013-06-08 20:08:00,76.2,74.0,30.05,SW,227,19.0,22.0,93,0.00,,---,0.00,VWS V14.01,2013-06-09 00:08:00,
2013-06-08 20:09:00,76.2,74.0,30.05,SW,225,17.0,22.0,93,0.00,,---,0.00,VWS V14.01,2013-06-09 00:09:00,
2013-06-08 20:10:00,76.2,74.0,30.05,SW,227,17.0,22.0,93,0.00,,---,0.00,VWS V14.01,2013-06-09 00:10:00,
2013-06-08 20:11:00,76.2,74.0,30.05,SW,223,18.0,18.0,93,0.00,,---,0.00,VWS V14.01,2013-06-09 00:11:00,
2013-06-08 20:12:00,76.2,74.0,30.05,SW,224,16.0,20.0,93,0.00,,---,0.00,VWS V14.01,2013-06-09 00:12:00,
2013-06-08 20:13:00,76.2,74.0,30.05,SW,227,21.0,21.0,93,0.00,,---,0.00,VWS V14.01,2013-06-09 00:13:00,
2013-06-08 20:14:00,76.2,74.0,30.05,SW,223,17.0,21.0,93,0.00,,---,0.00,VWS V14.01,2013-06-09 00:14:00,
2013-06-08 20:15:00,76.2,74.0,30.05,SW,227,15.0,21.0,93,0.00,,---,0.00,VWS V14.01,2013-06-09 00:15:00,
2013-06-08 20:16:00,76.2,74.0,30.05,SW,228,16.0,20.0,93,0.00,,---,0.00,VWS V14.01,2013-06-09 00:16:00,
2013-06-08 20:17:00,76.2,74.0,30.05,SW,226,17.0,20.0,93,0.00,,---,0.00,VWS V14.01,2013-06-09 00:17:00,
2013-06-08 20:18:00,76.2,74.0,30.05,SW,226,18.0,20.0,93,0.00,,---,0.00,VWS V14.01,2013-06-09 00:18:00,
2013-06-08 20:19:00,76.2,74.0,30.05,SW,225,21.0,21.0,93,0.00,,---,0.00,VWS V14.01,2013-06-09 00:19:00,
2013-06-08 20:20:00,76.2,74.0,30.05,SW,225,15.0,21.0,93,0.00,,---,0.00,VWS V14.01,2013-06-09 00:20:00,
2013-06-08 20:21:00,76.2,74.0,30.05,SW,227,17.0,17.0,93,0.00,,---,0.00,VWS V14.01,2013-06-09 00:21:00,
2013-06-08 20:22:00,76.2,74.0,30.05,SW,224,16.0,20.0,93,0.00,,---,0.00,VWS V14.01,2013-06-09 00:22:00,
2013-06-08 20:23:00,76.2,74.0,30.05,SW,223,20.0,21.0,93,0.00,,---,0.00,VWS V14.01,2013-06-09 00:23:00,
2013-06-08 20:24:00,76.2,74.0,30.05,SW,227,20.0,22.0,93,0.00,,---,0.00,VWS V14.01,2013-06-09 00:24:00,
2013-06-08 20:25:00,76.2,74.0,30.05,SW,227,17.0,22.0,93,0.00,,---,0.00,VWS V14.01,2013-06-09 00:25:00,
2013-06-08 20:26:00,76.2,74.0,30.05,SW,228,14.0,20.0,93,0.00,,---,0.00,VWS V14.01,2013-06-09 00:26:00,
2013-06-08 20:27:00,76.2,74.0,30.05,SW,227,18.0,20.0,93,0.00,,---,0.00,VWS V14.01,2013-06-09 00:27:00,
2013-06-08 20:28:00,76.2,74.0,30.05,SW,225,15.0,21.0,93,0.00,,---,0.00,VWS V14.01,2013-06-09 00:28:00,
2013-06-08 20:29:00,76.2,74.0,30.05,SW,226,18.0,21.0,93,0.00,,---,0.00,VWS V14.01,2013-06-09 00:29:00,
2013-06-08 20:30:00,76.2,74.0,30.06,SW,228,16.0,21.0,93,0.00,,---,0.00,VWS V14.01,2013-06-09 00:30:00,
2013-06-08 20:31:00,76.2,74.0,30.06,SW,223,17.0,20.0,93,0.00,,---,0.00,VWS V14.01,2013-06-09 00:31:00,
2013-06-08 20:32:00,76.1,73.9,30.06,SW,227,18.0,20.0,93,0.00,,---,0.00,VWS V14.01,2013-06-09 00:32:00,
2013-06-08 20:33:00,76.1,73.9,30.06,SW,229,19.0,21.0,93,0.00,,---,0.00,VWS V14.01,2013-06-09 00:33:00,
2013-06-08 20:34:00,76.1,73.9,30.06,SW,228,15.0,21.0,93,0.00,,---,0.00,VWS V14.01,2013-06-09 00:34:00,
2013-06-08 20:35:00,76.1,73.9,30.06,SW,225,16.0,21.0,93,0.00,,---,0.00,VWS V14.01,2013-06-09 00:35:00,
2013-06-08 20:36:00,76.1,73.9,30.06,SW,227,15.0,18.0,93,0.00,,---,0.00,VWS V14.01,2013-06-09 00:36:00,
2013-06-08 20:37:00,76.1,73.9,30.06,SW,233,15.0,18.0,93,0.00,,---,0.00,VWS V14.01,2013-06-09 00:37:00,
2013-06-08 20:38:00,76.2,74.0,30.06,SW,226,17.0,18.0,93,0.00,,---,0.00,VWS V14.01,2013-06-09 00:38:00,
2013-06-08 20:39:00,76.1,73.9,30.06,SW,227,18.0,21.0,93,0.00,,---,0.00,VWS V14.01,2013-06-09 00:39:00,
2013-06-08 20:40:00,76.1,73.9,30.06,SW,224,16.0,21.0,93,0.00,,---,0.00,VWS V14.01,2013-06-09 00:40:00,
2013-06-08 20:41:00,76.1,73.9,30.06,SW,229,17.0,20.0,93,0.00,,---,0.00,VWS V14.01,2013-06-09 00:41:00,
2013-06-08 20:42:00,76.1,73.9,30.06,SW,234,14.0,20.0,93,0.00,,---,0.00,VWS V14.01,2013-06-09 00:42:00,
2013-06-08 20:43:00,76.2,74.0,30.06,SW,227,15.0,20.0,93,0.00,,---,0.00,VWS V14.01,2013-06-09 00:43:00,
2013-06-08 20:44:00,76.2,74.0,30.06,SW,228,17.0,21.0,93,0.00,,---,0.00,VWS V14.01,2013-06-09 00:44:00,
2013-06-08 20:45:00,76.1,73.9,30.07,SW,225,18.0,21.0,93,0.00,,---,0.00,VWS V14.01,2013-06-09 00:45:00,
2013-06-08 20:46:00,76.1,73.9,30.07,SW,227,17.0,18.0,93,0.00,,---,0.00,VWS V14.01,2013-06-09 00:46:00,
2013-06-08 20:47:00,76.1,73.9,30.07,SW,227,15.0,21.0,93,0.00,,---,0.00,VWS V14.01,2013-06-09 00:47:00,
2013-06-08 20:48:00,76.1,73.9,30.07,SW,232,16.0,21.0,93,0.00,,---,0.00,VWS V14.01,2013-06-09 00:48:00,
2013-06-08 20:49:00,76.1,73.9,30.07,SW,228,19.0,21.0,93,0.00,,---,0.00,VWS V14.01,2013-06-09 00:49:00,
2013-06-08 20:50:00,76.1,73.9,30.07,SW,232,15.0,21.0,93,0.00,,---,0.00,VWS V14.01,2013-06-09 00:50:00,
2013-06-08 20:51:00,76.1,73.9,30.07,SW,228,16.0,20.0,93,0.00,,---,0.00,VWS V14.01,2013-06-09 00:51:00,
2013-06-08 20:52:00,76.1,73.9,30.07,SW,231,18.0,21.0,93,0.00,,---,0.00,VWS V14.01,2013-06-09 00:52:00,
2013-06-08 20:53:00,76.1,73.9,30.07,SW,228,21.0,21.0,93,0.00,,---,0.00,VWS V14.01,2013-06-09 00:53:00,
2013-06-08 20:54:00,76.1,73.9,30.07,SW,235,17.0,21.0,93,0.00,,---,0.00,VWS V14.01,2013-06-09 00:54:00,
2013-06-08 20:55:00,76.1,73.9,30.07,SW,229,18.0,21.0,93,0.00,,---,0.00,VWS V14.01,2013-06-09 00:55:00,
2013-06-08 20:56:00,76.0,73.8,30.07,SW,232,17.0,19.0,93,0.00,,---,0.00,VWS V14.01,2013-06-09 00:56:00,
2013-06-08 20:57:00,76.1,73.9,30.07,SW,228,15.0,19.0,93,0.00,,---,0.00,VWS V14.01,2013-06-09 00:57:00,
2013-06-08 20:58:00,76.1,73.9,30.07,SW,229,14.0,19.0,93,0.00,,---,0.00,VWS V14.01,2013-06-09 00:58:00,
2013-06-08 20:59:00,76.1,73.9,30.07,SW,230,16.0,19.0,93,0.00,,---,0.00,VWS V14.01,2013-06-09 00:59:00,
2013-06-08 21:00:00,76.1,73.9,30.07,SW,231,14.0,19.0,93,0.00,,---,0.00,VWS V14.01,2013-06-09 01:00:00,
2013-06-08 21:01:00,76.1,73.9,30.07,SW,230,19.0,19.0,93,0.00,,---,0.00,VWS V14.01,2013-06-09 01:01:00,
2013-06-08 21:02:00,76.1,73.9,30.07,SW,236,16.0,19.0,93,0.00,,---,0.00,VWS V14.01,2013-06-09 01:02:00,
2013-06-08 21:03:00,76.2,74.0,30.07,SW,229,18.0,19.0,93,0.00,,---,0.00,VWS V14.01,2013-06-09 01:03:00,
2013-06-08 21:04:00,76.1,73.9,30.07,SW,234,19.0,20.0,93,0.00,,---,0.00,VWS V14.01,2013-06-09 01:04:00,
2013-06-08 21:05:00,76.1,73.9,30.07,SW,230,17.0,20.0,93,0.00,,---,0.00,VWS V14.01,2013-06-09 01:05:00,
2013-06-08 21:06:00,76.1,73.9,30.07,SW,236,15.0,19.0,93,0.00,,---,0.00,VWS V14.01,2013-06-09 01:06:00,
2013-06-08 21:07:00,76.1,73.9,30.07,SW,232,15.0,19.0,93,0.00,,---,0.00,VWS V14.01,2013-06-09 01:07:00,
2013-06-08 21:08:00,76.1,73.9,30.07,SW,229,20.0,20.0,93,0.00,,---,0.00,VWS V14.01,2013-06-09 01:08:00,
2013-06-08 21:09:00,76.1,73.9,30.07,SW,229,19.0,21.0,93,0.00,,---,0.00,VWS V14.01,2013-06-09 01:09:00,
2013-06-08 21:10:00,76.1,73.9,30.07,SW,229,16.0,21.0,93,0.00,,---,0.00,VWS V14.01,2013-06-09 01:10:00,
2013-06-08 21:11:00,76.2,74.0,30.07,SW,227,18.0,20.0,93,0.00,,---,0.00,VWS V14.01,2013-06-09 01:11:00,
2013-06-08 21:12:00,76.1,73.9,30.07,SW,228,17.0,21.0,93,0.00,,---,0.00,VWS V14.01,2013-06-09 01:12:00,
2013-06-08 21:13:00,76.2,74.0,30.07,SW,227,18.0,21.0,93,0.00,,---,0.00,VWS V14.01,2013-06-09 01:13:00,
2013-06-08 21:14:00,76.2,74.0,30.07,SW,227,18.0,21.0,93,0.00,,---,0.00,VWS V14.01,2013-06-09 01:14:00,
2013-06-08 21:15:00,76.2,74.0,30.08,SW,232,16.0,21.0,93,0.00,,---,0.00,VWS V14.01,2013-06-09 01:15:00,
2013-06-08 21:16:00,76.2,74.0,30.08,SW,233,15.0,19.0,93,0.00,,---,0.00,VWS V14.01,2013-06-09 01:16:00,
2013-06-08 21:17:00,76.2,74.0,30.08,SW,234,17.0,19.0,93,0.00,,---,0.00,VWS V14.01,2013-06-09 01:17:00,
2013-06-08 21:18:00,76.2,74.0,30.08,SW,229,18.0,19.0,93,0.00,,---,0.00,VWS V14.01,2013-06-09 01:18:00,
2013-06-08 21:19:00,76.2,74.0,30.08,SW,229,17.0,20.0,93,0.00,,---,0.00,VWS V14.01,2013-06-09 01:19:00,
2013-06-08 21:20:00,76.2,74.0,30.08,SW,227,18.0,20.0,93,0.00,,---,0.00,VWS V14.01,2013-06-09 01:20:00,
2013-06-08 21:21:00,76.2,74.0,30.08,SW,232,14.0,18.0,93,0.00,,---,0.00,VWS V14.01,2013-06-09 01:21:00,
2013-06-08 21:22:00,76.2,74.0,30.08,SW,230,19.0,19.0,93,0.00,,---,0.00,VWS V14.01,2013-06-09 01:22:00,
2013-06-08 21:23:00,76.1,73.9,30.08,SW,232,14.0,19.0,93,0.00,,---,0.00,VWS V14.01,2013-06-09 01:23:00,
2013-06-08 21:24:00,76.2,74.0,30.08,SW,234,19.0,21.0,93,0.00,,---,0.00,VWS V14.01,2013-06-09 01:24:00,
2013-06-08 21:25:00,76.2,74.0,30.08,SW,231,17.0,21.0,93,0.00,,---,0.00,VWS V14.01,2013-06-09 01:25:00,
2013-06-08 21:26:00,76.2,74.0,30.08,SW,231,17.0,17.0,93,0.00,,---,0.00,VWS V14.01,2013-06-09 01:26:00,
2013-06-08 21:27:00,76.2,74.0,30.08,SW,232,16.0,17.0,93,0.00,,---,0.00,VWS V14.01,2013-06-09 01:27:00,
2013-06-08 21:28:00,76.2,74.0,30.08,SW,234,15.0,19.0,93,0.00,,---,0.00,VWS V14.01,2013-06-09 01:28:00,
2013-06-08 21:29:00,76.2,74.0,30.08,SW,234,14.0,19.0,93,0.00,,---,0.00,VWS V14.01,2013-06-09 01:29:00,
2013-06-08 21:30:00,76.2,74.0,30.08,SW,233,17.0,19.0,93,0.00,,---,0.00,VWS V14.01,2013-06-09 01:30:00,
2013-06-08 21:31:00,76.2,74.0,30.08,SW,236,17.0,17.0,93,0.00,,---,0.00,VWS V14.01,2013-06-09 01:31:00,
2013-06-08 21:32:00,76.2,74.0,30.08,WSW,237,15.0,17.0,93,0.00,,---,0.00,VWS V14.01,2013-06-09 01:32:00,
2013-06-08 21:33:00,76.1,73.9,30.08,SW,236,18.0,18.0,93,0.00,,---,0.00,VWS V14.01,2013-06-09 01:33:00,
2013-06-08 21:34:00,76.1,73.9,30.08,WSW,237,16.0,18.0,93,0.00,,---,0.00,VWS V14.01,2013-06-09 01:34:00,
2013-06-08 21:35:00,76.1,73.9,30.08,WSW,238,12.0,19.0,93,0.00,,---,0.00,VWS V14.01,2013-06-09 01:35:00,
2013-06-08 21:36:00,76.2,74.0,30.08,SW,236,13.0,18.0,93,0.00,,---,0.00,VWS V14.01,2013-06-09 01:36:00,
2013-06-08 21:37:00,76.2,74.0,30.08,SW,236,16.0,18.0,93,0.00,,---,0.00,VWS V14.01,2013-06-09 01:37:00,
2013-06-08 21:38:00,76.2,74.0,30.08,WSW,238,17.0,18.0,93,0.00,,---,0.00,VWS V14.01,2013-06-09 01:38:00,
2013-06-08 21:39:00,76.1,73.9,30.08,SW,235,15.0,19.0,93,0.00,,---,0.00,VWS V14.01,2013-06-09 01:39:00,
2013-06-08 21:40:00,76.1,73.9,30.08,SW,235,16.0,19.0,93,0.00,,---,0.00,VWS V14.01,2013-06-09 01:40:00,
2013-06-08 21:41:00,76.2,74.0,30.08,SW,231,12.0,18.0,93,0.00,,---,0.00,VWS V14.01,2013-06-09 01:41:00,
2013-06-08 21:42:00,76.2,74.0,30.08,SW,230,13.0,18.0,93,0.00,,---,0.00,VWS V14.01,2013-06-09 01:42:00,
2013-06-08 21:43:00,76.2,74.0,30.08,SW,232,16.0,18.0,93,0.00,,---,0.00,VWS V14.01,2013-06-09 01:43:00,
2013-06-08 21:44:00,76.2,74.0,30.08,SW,229,16.0,18.0,93,0.00,,---,0.00,VWS V14.01,2013-06-09 01:44:00,
2013-06-08 21:45:00,76.1,73.9,30.09,SW,231,16.0,18.0,93,0.00,,---,0.00,VWS V14.01,2013-06-09 01:45:00,
2013-06-08 21:46:00,76.1,73.9,30.09,SW,231,14.0,16.0,93,0.00,,---,0.00,VWS V14.01,2013-06-09 01:46:00,
2013-06-08 21:47:00,76.1,73.9,30.09,SW,234,15.0,16.0,93,0.00,,---,0.00,VWS V14.01,2013-06-09 01:47:00,
2013-06-08 21:48:00,76.2,74.0,30.09,SW,232,16.0,17.0,93,0.00,,---,0.00,VWS V14.01,2013-06-09 01:48:00,
2013-06-08 21:49:00,76.1,73.9,30.09,SW,230,16.0,19.0,93,0.00,,---,0.00,VWS V14.01,2013-06-09 01:49:00,
2013-06-08 21:50:00,76.1,73.9,30.09,SW,229,15.0,19.0,93,0.00,,---,0.00,VWS V14.01,2013-06-09 01:50:00,
2013-06-08 21:51:00,76.1,73.9,30.09,SW,232,13.0,16.0,93,0.00,,---,0.00,VWS V14.01,2013-06-09 01:51:00,
2013-06-08 21:52:00,76.1,73.9,30.09,SW,232,13.0,19.0,93,0.00,,---,0.00,VWS V14.01,2013-06-09 01:52:00,
2013-06-08 21:53:00,76.1,73.9,30.09,SW,229,17.0,19.0,93,0.00,,---,0.00,VWS V14.01,2013-06-09 01:53:00,
2013-06-08 21:54:00,76.1,73.9,30.09,SW,229,13.0,19.0,93,0.00,,---,0.00,VWS V14.01,2013-06-09 01:54:00,
2013-06-08 21:55:00,76.1,73.9,30.09,SW,229,16.0,19.0,93,0.00,,---,0.00,VWS V14.01,2013-06-09 01:55:00,
2013-06-08 21:56:00,76.1,73.9,30.09,SW,232,15.0,17.0,93,0.00,,---,0.00,VWS V14.01,2013-06-09 01:56:00,
2013-06-08 21:57:00,76.1,73.9,30.09,SW,232,13.0,17.0,93,0.00,,---,0.00,VWS V14.01,2013-06-09 01:57:00,
2013-06-08 21:58:00,76.1,73.9,30.09,SW,231,16.0,17.0,93,0.00,,---,0.00,VWS V14.01,2013-06-09 01:58:00,
2013-06-08 21:59:00,76.0,73.8,30.09,SW,236,14.0,18.0,93,0.00,,---,0.00,VWS V14.01,2013-06-09 01:59:00,
2013-06-08 22:00:00,76.0,73.8,30.10,SW,229,15.0,18.0,93,0.00,,---,0.00,VWS V14.01,2013-06-09 02:00:00,
2013-06-08 22:01:00,76.1,73.9,30.10,SW,234,15.0,17.0,93,0.00,,---,0.00,VWS V14.01,2013-06-09 02:01:00,
2013-06-08 22:02:00,76.1,73.9,30.10,SW,233,12.0,17.0,93,0.00,,---,0.00,VWS V14.01,2013-06-09 02:02:00,
2013-06-08 22:03:00,76.1,73.9,30.10,SW,233,12.0,17.0,93,0.00,,---,0.00,VWS V14.01,2013-06-09 02:03:00,
2013-06-08 22:04:00,76.1,73.9,30.10,SW,230,15.0,17.0,93,0.00,,---,0.00,VWS V14.01,2013-06-09 02:04:00,
2013-06-08 22:05:00,76.0,73.8,30.10,SW,231,17.0,17.0,93,0.00,,---,0.00,VWS V14.01,2013-06-09 02:05:00,
2013-06-08 22:06:00,76.0,73.8,30.10,SW,229,15.0,17.0,93,0.00,,---,0.00,VWS V14.01,2013-06-09 02:06:00,
2013-06-08 22:07:00,76.0,73.8,30.10,SW,229,13.0,17.0,93,0.00,,---,0.00,VWS V14.01,2013-06-09 02:07:00,
2013-06-08 22:08:00,76.1,73.9,30.10,SW,230,14.0,17.0,93,0.00,,---,0.00,VWS V14.01,2013-06-09 02:08:00,
2013-06-08 22:09:00,76.1,73.9,30.10,SW,231,13.0,17.0,93,0.00,,---,0.00,VWS V14.01,2013-06-09 02:09:00,
2013-06-08 22:10:00,76.1,73.9,30.10,SW,232,14.0,17.0,93,0.00,,---,0.00,VWS V14.01,2013-06-09 02:10:00,
2013-06-08 22:11:00,76.1,73.9,30.10,SW,229,12.0,16.0,93,0.00,,---,0.00,VWS V14.01,2013-06-09 02:11:00,
2013-06-08 22:12:00,76.1,73.9,30.10,SW,228,16.0,16.0,93,0.00,,---,0.00,VWS V14.01,2013-06-09 02:12:00,
2013-06-08 22:13:00,76.1,73.9,30.10,SW,227,15.0,17.0,93,0.00,,---,0.00,VWS V14.01,2013-06-09 02:13:00,
2013-06-08 22:14:00,76.1,73.9,30.10,SW,230,16.0,18.0,93,0.00,,---,0.00,VWS V14.01,2013-06-09 02:14:00,
2013-06-08 22:15:00,76.0,73.8,30.10,SW,229,15.0,18.0,93,0.00,,---,0.00,VWS V14.01,2013-06-09 02:15:00,
2013-06-08 22:16:00,76.1,73.9,30.10,SW,233,15.0,16.0,93,0.00,,---,0.00,VWS V14.01,2013-06-09 02:16:00,
2013-06-08 22:17:00,76.1,73.9,30.10,SW,228,14.0,17.0,93,0.00,,---,0.00,VWS V14.01,2013-06-09 02:17:00,
2013-06-08 22:18:00,76.1,73.9,30.10,SW,234,13.0,17.0,93,0.00,,---,0.00,VWS V14.01,2013-06-09 02:18:00,
2013-06-08 22:19:00,76.1,73.9,30.10,SW,231,13.0,17.0,93,0.00,,---,0.00,VWS V14.01,2013-06-09 02:19:00,
2013-06-08 22:20:00,76.1,73.9,30.10,SW,229,13.0,17.0,93,0.00,,---,0.00,VWS V14.01,2013-06-09 02:20:00,
2013-06-08 22:21:00,76.1,73.9,30.10,SW,229,14.0,16.0,93,0.00,,---,0.00,VWS V14.01,2013-06-09 02:21:00,
2013-06-08 22:22:00,76.1,73.9,30.10,SW,227,13.0,16.0,93,0.00,,---,0.00,VWS V14.01,2013-06-09 02:22:00,
2013-06-08 22:23:00,76.1,73.9,30.10,SW,232,11.0,16.0,93,0.00,,---,0.00,VWS V14.01,2013-06-09 02:23:00,
2013-06-08 22:24:00,76.1,73.9,30.10,SW,227,15.0,18.0,93,0.00,,---,0.00,VWS V14.01,2013-06-09 02:24:00,
2013-06-08 22:25:00,76.0,73.8,30.10,SW,226,15.0,18.0,93,0.00,,---,0.00,VWS V14.01,2013-06-09 02:25:00,
2013-06-08 22:26:00,76.1,73.9,30.10,SW,231,12.0,15.0,93,0.00,,---,0.00,VWS V14.01,2013-06-09 02:26:00,
2013-06-08 22:27:00,76.1,73.9,30.10,SW,231,14.0,17.0,93,0.00,,---,0.00,VWS V14.01,2013-06-09 02:27:00,
2013-06-08 22:28:00,76.0,73.8,30.10,SW,227,16.0,17.0,93,0.00,,---,0.00,VWS V14.01,2013-06-09 02:28:00,
2013-06-08 22:29:00,76.1,73.9,30.10,SW,229,14.0,17.0,93,0.00,,---,0.00,VWS V14.01,2013-06-09 02:29:00,
2013-06-08 22:30:00,76.1,73.9,30.10,SW,234,12.0,17.0,93,0.00,,---,0.00,VWS V14.01,2013-06-09 02:30:00,
2013-06-08 22:31:00,76.1,73.9,30.10,SW,234,12.0,15.0,93,0.00,,---,0.00,VWS V14.01,2013-06-09 02:31:00,
2013-06-08 22:32:00,76.1,73.9,30.10,SW,228,13.0,15.0,93,0.00,,---,0.00,VWS V14.01,2013-06-09 02:32:00,
2013-06-08 22:33:00,76.0,73.8,30.10,SW,232,14.0,15.0,93,0.00,,---,0.00,VWS V14.01,2013-06-09 02:33:00,
2013-06-08 22:34:00,76.0,73.8,30.10,SW,233,10.0,15.0,93,0.00,,---,0.00,VWS V14.01,2013-06-09 02:34:00,
2013-06-08 22:35:00,76.0,73.8,30.10,SW,235,13.0,15.0,93,0.00,,---,0.00,VWS V14.01,2013-06-09 02:35:00,
2013-06-08 22:36:00,76.0,73.8,30.10,WSW,237,13.0,13.0,93,0.00,,---,0.00,VWS V14.01,2013-06-09 02:36:00,
2013-06-08 22:37:00,76.1,73.9,30.10,SW,234,11.0,13.0,93,0.00,,---,0.00,VWS V14.01,2013-06-09 02:37:00,
2013-06-08 22:38:00,76.0,73.8,30.10,WSW,240,10.0,13.0,93,0.00,,---,0.00,VWS V14.01,2013-06-09 02:38:00,
2013-06-08 22:39:00,76.1,73.9,30.10,SW,236,11.0,13.0,93,0.00,,---,0.00,VWS V14.01,2013-06-09 02:39:00,
2013-06-08 22:40:00,76.0,73.8,30.10,WSW,238,11.0,13.0,93,0.00,,---,0.00,VWS V14.01,2013-06-09 02:40:00,
2013-06-08 22:41:00,76.0,73.8,30.10,SW,233,13.0,13.0,93,0.00,,---,0.00,VWS V14.01,2013-06-09 02:41:00,
2013-06-08 22:42:00,76.0,73.8,30.10,SW,234,13.0,14.0,93,0.00,,---,0.00,VWS V14.01,2013-06-09 02:42:00,
2013-06-08 22:43:00,76.0,73.8,30.10,WSW,237,13.0,14.0,93,0.00,,---,0.00,VWS V14.01,2013-06-09 02:43:00,
2013-06-08 22:44:00,76.0,73.8,30.10,WSW,237,12.0,14.0,93,0.00,,---,0.00,VWS V14.01,2013-06-09 02:44:00,
2013-06-08 22:45:00,76.0,73.8,30.11,WSW,237,12.0,14.0,93,0.00,,---,0.00,VWS V14.01,2013-06-09 02:45:00,
2013-06-08 22:46:00,76.1,73.9,30.11,SW,234,13.0,14.0,93,0.00,,---,0.00,VWS V14.01,2013-06-09 02:46:00,
2013-06-08 22:47:00,76.0,73.8,30.11,SW,236,13.0,14.0,93,0.00,,---,0.00,VWS V14.01,2013-06-09 02:47:00,
2013-06-08 22:48:00,76.0,73.8,30.11,SW,229,14.0,15.0,93,0.00,,---,0.00,VWS V14.01,2013-06-09 02:48:00,
2013-06-08 22:49:00,76.0,73.8,30.11,SW,230,15.0,16.0,93,0.00,,---,0.00,VWS V14.01,2013-06-09 02:49:00,
2013-06-08 22:50:00,76.0,73.8,30.11,SW,236,12.0,16.0,93,0.00,,---,0.00,VWS V14.01,2013-06-09 02:50:00,
2013-06-08 22:51:00,76.1,73.9,30.11,SW,236,12.0,14.0,93,0.00,,---,0.00,VWS V14.01,2013-06-09 02:51:00,
2013-06-08 22:52:00,76.1,73.9,30.11,WSW,240,12.0,15.0,93,0.00,,---,0.00,VWS V14.01,2013-06-09 02:52:00,
2013-06-08 22:53:00,76.1,73.9,30.11,SW,236,14.0,15.0,93,0.00,,---,0.00,VWS V14.01,2013-06-09 02:53:00,
2013-06-08 22:54:00,76.0,73.8,30.11,WSW,237,14.0,15.0,93,0.00,,---,0.00,VWS V14.01,2013-06-09 02:54:00,
2013-06-08 22:55:00,76.1,73.9,30.11,SW,236,11.0,15.0,93,0.00,,---,0.00,VWS V14.01,2013-06-09 02:55:00,
2013-06-08 22:56:00,76.1,73.9,30.11,WSW,240,15.0,15.0,93,0.00,,---,0.00,VWS V14.01,2013-06-09 02:56:00,
2013-06-08 22:57:00,76.0,73.8,30.11,SW,236,15.0,16.0,93,0.00,,---,0.00,VWS V14.01,2013-06-09 02:57:00,
2013-06-08 22:58:00,76.0,73.8,30.11,WSW,240,12.0,16.0,93,0.00,,---,0.00,VWS V14.01,2013-06-09 02:58:00,
2013-06-08 22:59:00,76.0,73.8,30.11,WSW,240,12.0,16.0,93,0.00,,---,0.00,VWS V14.01,2013-06-09 02:59:00,
2013-06-08 23:00:00,76.0,73.8,30.11,WSW,240,14.0,16.0,93,0.00,,---,0.00,VWS V14.01,2013-06-09 03:00:00,
2013-06-08 23:01:00,76.0,73.8,30.11,WSW,242,12.0,14.0,93,0.00,,---,0.00,VWS V14.01,2013-06-09 03:01:00,
2013-06-08 23:02:00,76.0,73.8,30.11,WSW,241,11.0,14.0,93,0.00,,---,0.00,VWS V14.01,2013-06-09 03:02:00,
2013-06-08 23:03:00,76.0,73.8,30.11,WSW,244,14.0,15.0,93,0.00,,---,0.00,VWS V14.01,2013-06-09 03:03:00,
2013-06-08 23:04:00,76.0,73.8,30.11,WSW,241,12.0,15.0,93,0.00,,---,0.00,VWS V14.01,2013-06-09 03:04:00,
2013-06-08 23:05:00,76.0,73.8,30.11,WSW,238,14.0,15.0,93,0.00,,---,0.00,VWS V14.01,2013-06-09 03:05:00,
2013-06-08 23:06:00,76.0,73.8,30.11,WSW,241,12.0,14.0,93,0.00,,---,0.00,VWS V14.01,2013-06-09 03:06:00,
2013-06-08 23:07:00,76.0,73.8,30.11,WSW,242,12.0,14.0,93,0.00,,---,0.00,VWS V14.01,2013-06-09 03:07:00,
2013-06-08 23:08:00,76.0,73.8,30.11,WSW,243,12.0,14.0,93,0.00,,---,0.00,VWS V14.01,2013-06-09 03:08:00,
2013-06-08 23:09:00,76.0,73.8,30.11,WSW,238,13.0,14.0,93,0.00,,---,0.00,VWS V14.01,2013-06-09 03:09:00,
2013-06-08 23:10:00,76.0,73.8,30.11,WSW,242,12.0,14.0,93,0.00,,---,0.00,VWS V14.01,2013-06-09 03:10:00,
2013-06-08 23:11:00,76.0,73.8,30.11,WSW,240,10.0,12.0,93,0.00,,---,0.00,VWS V14.01,2013-06-09 03:11:00,
2013-06-08 23:12:00,76.0,73.8,30.11,WSW,238,11.0,14.0,93,0.00,,---,0.00,VWS V14.01,2013-06-09 03:12:00,
2013-06-08 23:13:00,76.0,73.8,30.11,SW,236,13.0,14.0,93,0.00,,---,0.00,VWS V14.01,2013-06-09 03:13:00,
2013-06-08 23:14:00,75.9,73.7,30.11,WSW,237,12.0,14.0,93,0.00,,---,0.00,VWS V14.01,2013-06-09 03:14:00,
2013-06-08 23:15:00,75.9,74.1,30.11,WSW,238,11.0,14.0,94,0.00,,---,0.00,VWS V14.01,2013-06-09 03:15:00,
2013-06-08 23:16:00,76.0,74.2,30.11,WSW,238,11.0,12.0,94,0.00,,---,0.00,VWS V14.01,2013-06-09 03:16:00,
2013-06-08 23:17:00,75.9,74.1,30.11,WSW,242,12.0,12.0,94,0.00,,---,0.00,VWS V14.01,2013-06-09 03:17:00,
2013-06-08 23:18:00,76.0,74.2,30.11,WSW,238,12.0,13.0,94,0.00,,---,0.00,VWS V14.01,2013-06-09 03:18:00,
2013-06-08 23:19:00,76.0,73.8,30.11,WSW,239,11.0,13.0,93,0.00,,---,0.00,VWS V14.01,2013-06-09 03:19:00,
2013-06-08 23:20:00,76.0,73.8,30.11,WSW,240,9.0,13.0,93,0.00,,---,0.00,VWS V14.01,2013-06-09 03:20:00,
2013-06-08 23:21:00,76.0,74.2,30.11,WSW,238,11.0,13.0,94,0.00,,---,0.00,VWS V14.01,2013-06-09 03:21:00,
2013-06-08 23:22:00,76.0,74.2,30.11,WSW,241,10.0,13.0,94,0.00,,---,0.00,VWS V14.01,2013-06-09 03:22:00,
2013-06-08 23:23:00,76.0,74.2,30.11,WSW,241,10.0,13.0,94,0.00,,---,0.00,VWS V14.01,2013-06-09 03:23:00,
2013-06-08 23:24:00,76.0,73.8,30.11,WSW,240,11.0,13.0,93,0.00,,---,0.00,VWS V14.01,2013-06-09 03:24:00,
2013-06-08 23:25:00,75.9,74.1,30.11,WSW,242,10.0,13.0,94,0.00,,---,0.00,VWS V14.01,2013-06-09 03:25:00,
2013-06-08 23:26:00,76.0,74.2,30.11,WSW,244,9.0,11.0,94,0.00,,---,0.00,VWS V14.01,2013-06-09 03:26:00,
2013-06-08 23:27:00,76.0,74.2,30.11,WSW,243,10.0,11.0,94,0.00,,---,0.00,VWS V14.01,2013-06-09 03:27:00,
2013-06-08 23:28:00,76.0,74.2,30.11,WSW,244,8.0,11.0,94,0.00,,---,0.00,VWS V14.01,2013-06-09 03:28:00,
2013-06-08 23:29:00,76.0,74.2,30.11,WSW,246,9.0,11.0,94,0.00,,---,0.00,VWS V14.01,2013-06-09 03:29:00,
2013-06-08 23:30:00,76.0,74.2,30.11,WSW,246,10.0,12.0,94,0.00,,---,0.00,VWS V14.01,2013-06-09 03:30:00,
2013-06-08 23:31:00,75.9,74.1,30.11,WSW,244,10.0,13.0,94,0.00,,---,0.00,VWS V14.01,2013-06-09 03:31:00,
2013-06-08 23:32:00,75.9,74.1,30.11,WSW,245,8.0,13.0,94,0.00,,---,0.00,VWS V14.01,2013-06-09 03:32:00,
2013-06-08 23:33:00,76.0,74.2,30.11,WSW,244,10.0,13.0,94,0.00,,---,0.00,VWS V14.01,2013-06-09 03:33:00,
2013-06-08 23:34:00,76.0,74.2,30.11,WSW,244,10.0,13.0,94,0.00,,---,0.00,VWS V14.01,2013-06-09 03:34:00,
2013-06-08 23:35:00,75.9,74.1,30.11,WSW,241,9.0,13.0,94,0.00,,---,0.00,VWS V14.01,2013-06-09 03:35:00,
2013-06-08 23:36:00,75.9,74.1,30.11,WSW,243,8.0,11.0,94,0.00,,---,0.00,VWS V14.01,2013-06-09 03:36:00,
2013-06-08 23:37:00,75.9,74.1,30.11,WSW,242,9.0,11.0,94,0.00,,---,0.00,VWS V14.01,2013-06-09 03:37:00,
2013-06-08 23:38:00,76.0,74.2,30.11,WSW,241,10.0,11.0,94,0.00,,---,0.00,VWS V14.01,2013-06-09 03:38:00,
2013-06-08 23:39:00,75.9,74.1,30.11,WSW,242,10.0,11.0,94,0.00,,---,0.00,VWS V14.01,2013-06-09 03:39:00,
2013-06-08 23:40:00,75.9,74.1,30.11,WSW,242,9.0,11.0,94,0.00,,---,0.00,VWS V14.01,2013-06-09 03:40:00,
2013-06-08 23:41:00,75.9,74.1,30.11,WSW,244,7.0,10.0,94,0.00,,---,0.00,VWS V14.01,2013-06-09 03:41:00,
2013-06-08 23:42:00,76.0,74.2,30.11,WSW,243,10.0,10.0,94,0.00,,---,0.00,VWS V14.01,2013-06-09 03:42:00,
2013-06-08 23:43:00,76.0,74.2,30.11,WSW,243,7.0,10.0,94,0.00,,---,0.00,VWS V14.01,2013-06-09 03:43:00,
2013-06-08 23:44:00,76.0,74.2,30.11,WSW,240,10.0,12.0,94,0.00,,---,0.00,VWS V14.01,2013-06-09 03:44:00,
2013-06-08 23:45:00,75.9,74.1,30.11,WSW,240,10.0,12.0,94,0.00,,---,0.00,VWS V14.01,2013-06-09 03:45:00,
2013-06-08 23:46:00,75.9,74.1,30.11,WSW,241,10.0,11.0,94,0.00,,---,0.00,VWS V14.01,2013-06-09 03:46:00,
2013-06-08 23:47:00,75.9,74.1,30.11,SW,236,11.0,13.0,94,0.00,,---,0.00,VWS V14.01,2013-06-09 03:47:00,
2013-06-08 23:48:00,75.9,74.1,30.11,WSW,237,9.0,13.0,94,0.00,,---,0.00,VWS V14.01,2013-06-09 03:48:00,
2013-06-08 23:49:00,75.9,74.1,30.11,WSW,238,9.0,13.0,94,0.00,,---,0.00,VWS V14.01,2013-06-09 03:49:00,
2013-06-08 23:50:00,75.9,74.1,30.11,WSW,239,8.0,13.0,94,0.00,,---,0.00,VWS V14.01,2013-06-09 03:50:00,
2013-06-08 23:51:00,75.8,73.9,30.11,WSW,239,10.0,12.0,94,0.00,,---,0.00,VWS V14.01,2013-06-09 03:51:00,
2013-06-08 23:52:00,75.9,74.1,30.11,WSW,238,9.0,12.0,94,0.00,,---,0.00,VWS V14.01,2013-06-09 03:52:00,
2013-06-08 23:53:00,75.9,74.1,30.11,WSW,240,10.0,12.0,94,0.00,,---,0.00,VWS V14.01,2013-06-09 03:53:00,
2013-06-08 23:54:00,75.9,74.1,30.11,WSW,240,10.0,12.0,94,0.00,,---,0.00,VWS V14.01,2013-06-09 03:54:00,
2013-06-08 23:55:00,75.9,74.1,30.11,WSW,240,9.0,12.0,94,0.00,,---,0.00,VWS V14.01,2013-06-09 03:55:00,
2013-06-08 23:56:00,75.9,74.1,30.11,WSW,240,9.0,11.0,94,0.00,,---,0.00,VWS V14.01,2013-06-09 03:56:00,
2013-06-08 23:57:00,75.9,74.1,30.11,WSW,238,11.0,11.0,94,0.00,,---,0.00,VWS V14.01,2013-06-09 03:57:00,
2013-06-08 23:58:00,75.9,74.1,30.11,WSW,238,10.0,12.0,94,0.00,,---,0.00,VWS V14.01,2013-06-09 03:58:00,
2013-06-08 23:59:00,75.9,74.1,30.11,WSW,237,12.0,12.0,94,0.00,,---,0.00,VWS V14.01,2013-06-09 03:59:00,